GFSNGP_prec_cthk_033.txt.gz
RH
33 35 38 35 33 30 27 24 27 23 22 17 21 21 20 23 24 27 33 33 38 44 49 52 53 56 59 61 66 73 74 75 69 63 59 56 62 64 67 62 58 56 59 54
35 32 32 36 33 29 26 23 23 23 23 23 22 21 22 22 26 29 35 34 38 45 48 50 52 55 58 62 68 75 74 70 65 63 56 62 65 72 65 60 56 54 59 57
33 33 33 38 29 26 26 25 26 27 25 26 26 25 25 27 30 29 31 36 40 42 46 50 51 53 58 68 71 70 72 70 72 65 62 70 74 67 62 59 54 55 61 54
41 41 52 22 24 22 23 23 24 26 23 25 26 29 29 31 31 35 34 35 40 44 46 50 55 58 65 66 69 79 71 78 70 67 72 74 69 65 59 55 60 56 58 49
52 34 27 23 21 23 24 24 27 26 25 27 30 28 30 38 33 31 34 38 42 47 52 56 57 63 67 73 72 74 76 76 69 70 76 72 66 58 60 60 57 50 53 53
39 53 57 33 27 25 27 32 30 28 28 28 29 32 36 39 37 35 37 43 48 54 57 59 64 68 70 72 80 80 75 70 77 77 67 63 62 60 61 58 53 51 48 51
47 52 38 31 29 28 32 38 33 29 28 29 32 37 39 38 40 43 46 49 54 59 65 67 69 72 84 87 88 80 74 78 72 67 66 61 59 57 56 53 53 46 44 50
50 58 52 29 29 32 38 31 32 32 34 37 39 43 43 43 46 51 59 62 66 67 68 69 78 89 95 88 79 81 81 74 68 63 59 58 54 53 49 52 55 49 48 52
37 42 39 33 32 32 33 33 36 37 39 42 43 47 54 56 60 63 67 63 65 71 79 87 94 95 87 83 87 75 74 70 63 59 56 52 54 53 54 52 45 49 54 57
34 33 36 35 36 37 38 40 42 44 47 50 55 60 66 65 65 64 62 70 80 87 92 93 90 86 84 84 80 75 66 63 58 57 57 55 53 51 53 44 46 54 58 65
39 37 38 41 46 44 45 48 53 57 62 64 66 67 68 66 66 72 79 84 90 93 93 92 91 90 85 79 72 68 65 60 61 58 52 55 54 53 45 43 48 57 63 67
47 44 44 47 51 51 55 59 62 65 66 64 67 70 74 80 83 88 91 92 92 93 92 89 87 82 77 76 69 62 58 57 53 53 52 52 48 44 44 45 50 57 66 71
49 51 54 56 57 60 62 64 63 63 65 71 77 82 87 91 90 92 92 91 92 91 88 83 80 78 71 62 57 54 51 50 49 51 50 46 46 49 47 50 53 58 66 71
54 59 66 65 67 67 66 67 70 74 78 81 84 85 87 88 91 92 92 89 84 80 77 73 65 56 54 52 48 47 44 44 45 45 46 47 47 49 53 54 58 63 66 71
64 65 66 68 68 70 75 78 81 83 84 82 82 82 81 83 84 83 80 71 66 59 53 50 48 46 46 42 41 41 41 44 47 49 50 51 50 50 55 58 62 67 68 72
66 66 68 70 76 81 84 83 83 83 81 80 79 78 77 70 65 60 55 52 44 40 41 40 36 36 36 35 39 42 46 52 55 55 56 55 55 56 59 63 67 72 72 78
67 73 79 84 86 86 87 85 83 79 77 75 66 55 45 40 38 40 38 39 36 34 35 34 31 30 32 35 42 46 49 59 62 60 63 60 60 61 65 68 72 74 80 81
82 84 84 84 83 81 80 78 71 64 54 42 35 33 32 31 30 30 32 30 28 27 28 31 33 32 31 35 41 45 48 54 57 55 57 61 61 63 65 72 76 79 86 89
85 84 83 81 80 75 65 59 48 39 33 30 31 30 28 28 28 29 29 29 28 28 33 36 38 36 37 40 44 47 48 50 53 54 58 61 63 65 69 75 82 85 88 94
86 81 73 66 59 55 45 39 39 33 32 30 27 27 28 30 30 29 27 27 29 34 37 36 37 36 35 40 47 52 50 51 56 61 66 67 66 70 76 78 84 87 89 95
80 73 62 53 48 43 40 37 34 31 30 29 29 29 30 31 33 34 35 34 33 38 34 32 30 30 32 38 44 50 54 57 58 61 66 67 67 74 80 84 86 91 91 95
74 61 54 48 47 44 38 34 33 32 29 30 32 34 34 35 37 39 36 34 34 31 27 26 31 33 35 35 41 50 54 60 64 70 71 71 73 76 83 86 89 92 93 97
63 54 51 47 40 35 36 37 33 31 33 35 38 37 35 38 40 34 30 31 30 28 26 26 33 31 31 35 45 55 58 64 70 72 77 77 76 79 84 87 91 94 95 97
58 50 41 39 40 40 39 39 37 40 42 44 45 44 42 37 34 33 32 29 29 27 27 30 32 31 34 38 49 58 61 70 75 78 80 80 81 80 85 89 91 94 96 92
47 46 45 43 44 46 47 46 48 50 51 51 53 48 38 35 34 32 29 28 27 29 31 34 34 35 40 45 47 53 61 69 72 80 81 81 82 84 86 89 90 93 96 95
56 54 51 48 50 53 54 51 52 57 56 57 48 39 36 35 33 30 28 29 30 32 35 37 38 39 44 48 53 58 61 68 72 80 81 83 84 87 89 88 87 89 93 94
60 58 59 60 62 59 57 56 61 63 59 45 37 37 35 34 31 29 30 32 34 36 37 40 43 46 50 55 60 63 70 72 76 82 85 88 90 90 87 85 83 85 90 94

GFSNGP_prec_cthk_036.txt.gz
RH
30 40 51 48 45 41 36 35 36 27 26 25 25 28 29 27 27 27 26 40 45 50 55 58 54 57 59 57 55 56 62 69 74 75 83 74 71 65 63 74 69 68 68 63
37 35 36 34 35 35 34 32 30 26 28 28 31 28 26 27 27 26 29 34 45 43 46 52 57 57 56 57 56 59 70 74 79 79 73 80 75 60 74 79 78 66 63 62
42 35 33 35 26 26 28 27 29 30 29 29 27 28 29 26 28 31 30 34 40 44 45 49 56 58 59 60 61 63 71 79 76 76 85 78 67 77 80 73 69 66 64 63
51 45 48 25 25 24 24 24 26 30 31 28 29 30 29 29 31 32 37 36 35 40 45 49 57 62 63 63 66 73 77 78 81 87 84 74 79 80 76 73 69 66 62 56
62 44 31 28 25 24 25 26 27 27 26 27 29 30 32 33 35 35 33 34 37 40 47 54 59 61 63 71 73 75 80 88 90 85 80 87 83 81 74 67 68 66 59 57
48 55 55 37 30 27 25 34 32 31 33 31 28 34 38 38 38 39 40 41 43 48 55 62 65 68 72 75 75 80 86 87 87 88 86 82 77 73 71 68 66 64 63 61
53 58 45 37 33 30 37 43 37 37 33 31 33 37 41 41 43 45 46 49 54 62 66 66 66 68 73 78 84 92 92 91 91 85 82 73 72 70 66 62 61 62 60 51
57 64 58 33 32 34 41 37 33 33 32 35 36 36 40 47 48 51 60 62 62 61 63 68 76 81 85 88 91 92 94 86 85 79 72 70 70 69 62 61 58 56 52 48
42 48 38 35 34 35 35 34 35 36 38 40 41 46 51 59 63 65 61 58 61 67 76 83 87 91 95 93 93 91 90 85 75 74 74 73 67 60 57 55 50 48 46 43
38 33 38 38 37 39 38 41 41 43 46 49 53 59 64 65 61 58 63 72 78 83 86 90 90 91 93 93 93 90 83 76 77 72 64 58 54 52 49 50 48 46 44 48
36 36 38 42 47 44 46 46 47 52 53 56 61 62 59 60 67 76 79 83 86 89 92 92 91 90 89 86 78 72 68 61 55 50 48 46 43 43 43 42 47 48 50 55
47 45 44 51 48 48 48 50 52 56 60 61 58 61 66 73 78 83 86 89 89 88 87 84 80 73 66 61 60 54 46 43 40 38 39 40 39 38 41 43 46 51 56 61
50 50 51 49 48 51 56 60 64 63 60 62 67 70 76 80 84 84 84 82 77 77 70 65 59 58 53 44 42 41 38 35 36 34 35 39 44 46 44 41 49 55 57 65
49 52 53 55 58 63 65 64 62 63 67 70 72 73 75 76 75 73 71 63 53 45 38 38 35 34 38 42 42 37 30 31 34 36 41 46 53 55 56 55 50 48 57 62
52 56 61 66 67 67 66 66 69 72 74 75 74 71 69 69 64 56 48 39 31 29 29 30 29 27 28 29 31 33 35 36 39 43 49 54 62 60 61 62 56 55 57 63
62 64 66 67 67 68 69 74 78 78 78 75 73 69 61 51 42 31 29 25 22 21 22 23 23 25 28 30 33 35 39 43 51 61 64 67 70 66 66 67 65 64 63 68
68 69 69 69 70 75 81 82 80 77 75 68 54 42 34 26 24 23 22 22 23 24 24 26 34 38 37 38 40 43 44 43 44 47 60 64 63 65 64 70 68 67 68 71
67 69 72 76 80 80 81 81 73 64 53 45 38 30 26 25 24 22 22 22 23 24 29 39 40 39 38 37 38 39 37 38 45 46 48 51 58 61 62 64 65 69 72 77
72 76 79 83 83 83 80 65 58 50 42 35 30 28 26 22 21 22 22 23 26 32 36 38 36 32 27 26 27 29 31 37 42 51 59 59 60 63 65 66 65 69 77 80
81 85 86 86 79 68 61 57 52 42 35 33 30 26 24 24 24 23 24 32 33 35 38 36 30 25 28 31 34 31 30 29 36 42 60 63 65 66 68 70 72 75 80 84
88 83 75 72 68 61 53 47 40 37 33 29 27 27 28 26 26 27 31 34 36 37 33 25 27 29 25 23 22 24 30 33 36 51 55 61 68 73 77 77 76 80 84 87
86 80 73 70 65 55 46 42 39 33 30 29 30 32 31 29 30 34 38 40 39 34 27 27 29 25 23 23 28 34 34 45 57 60 61 71 80 80 80 80 78 80 85 90
82 73 68 65 57 47 41 37 34 34 35 36 37 36 35 35 40 40 42 42 37 30 27 30 26 23 25 27 33 35 39 41 46 59 61 73 80 81 81 81 80 81 85 90
75 70 61 51 45 42 41 39 40 42 44 45 46 44 43 42 46 47 42 38 34 31 30 29 28 26 29 32 35 39 44 47 51 55 61 70 73 80 82 82 84 86 87 91
65 58 52 50 49 47 46 47 51 52 52 51 54 52 51 52 47 42 38 35 33 31 29 30 32 33 33 36 40 44 49 53 57 61 65 70 75 81 83 86 87 88 90 90
59 58 58 57 55 53 54 55 57 59 56 60 60 56 52 46 41 37 35 33 31 31 32 34 36 38 40 42 46 50 54 59 62 68 71 75 79 83 87 91 91 88 87 87
66 67 66 65 64 63 63 61 64 61 64 67 59 46 46 42 38 35 33 32 33 34 36 38 39 42 44 48 52 56 61 65 68 72 79 81 84 87 91 93 95 93 91 90

GFSNGP_prec_cthk_042.txt.gz
RH
34 34 35 36 38 48 52 47 45 34 36 32 30 35 35 34 32 31 35 40 42 46 43 49 60 60 65 71 76 82 79 75 81 83 81 77 78 75 80 85 87 86 86 84
39 35 33 34 31 32 46 50 43 41 40 37 38 35 32 33 34 35 36 37 40 38 41 45 51 60 68 77 82 76 72 80 83 79 77 78 79 85 91 93 91 92 91 87
40 35 31 36 24 30 30 44 41 47 44 41 39 38 37 39 39 39 39 36 33 33 34 39 47 52 62 58 65 74 81 77 78 78 78 86 91 93 92 93 92 91 86 84
45 35 44 27 21 21 24 25 26 30 36 35 38 40 39 39 37 37 36 34 33 31 32 37 41 45 51 60 69 74 74 75 79 83 87 90 91 95 96 95 91 82 80 76
54 53 42 30 26 24 28 35 34 35 37 38 39 39 41 41 40 38 36 35 32 34 37 40 45 52 61 65 67 72 79 85 86 91 98 96 97 96 90 80 74 65 59 56
72 61 54 34 31 30 31 44 36 36 37 36 34 42 44 42 40 36 33 34 36 39 43 50 58 61 62 66 73 80 85 88 92 96 97 89 82 70 62 57 54 51 49 44
68 62 49 33 37 35 38 36 38 39 39 39 39 38 36 35 33 34 35 39 43 49 54 58 60 64 71 79 84 91 96 97 97 89 85 71 58 50 42 34 26 27 28 30
65 62 48 35 36 37 38 40 39 37 37 36 33 33 34 35 38 42 46 50 55 58 59 61 68 72 80 89 94 94 93 85 77 65 52 41 26 22 21 21 24 27 29 31
50 49 40 36 34 34 33 33 35 36 39 35 35 36 38 42 47 51 56 59 60 62 68 73 75 78 85 83 82 76 66 57 44 31 21 16 17 17 19 22 26 29 32 33
40 44 38 36 35 35 35 36 38 39 40 38 39 42 46 50 54 55 57 61 66 69 73 75 79 79 74 65 55 47 36 23 17 14 15 16 19 21 24 28 32 34 36 38
49 48 44 43 39 37 38 40 43 43 43 44 44 48 53 56 58 59 65 69 73 75 76 74 68 59 50 43 32 21 16 16 16 17 19 21 25 29 32 34 39 40 44 48
45 42 42 45 45 46 46 49 49 48 49 49 52 56 57 59 64 69 71 73 73 69 66 59 50 39 29 22 18 17 17 19 20 22 26 28 31 32 37 41 43 48 54 60
41 41 41 45 48 51 52 53 53 53 53 56 60 60 62 66 71 73 71 67 64 60 50 37 31 25 19 17 17 18 20 22 24 27 31 33 35 41 42 35 45 50 58 66
40 41 48 49 54 55 56 57 57 59 62 64 64 65 68 71 72 67 63 60 54 42 33 28 23 19 17 18 20 22 24 25 26 26 27 30 38 44 43 41 39 36 42 62
49 49 51 55 59 60 60 60 63 66 66 66 66 66 70 68 65 62 57 52 44 34 29 24 19 18 18 19 19 19 18 17 17 19 24 30 31 29 33 33 39 44 51 51
58 57 59 60 62 63 65 69 70 71 69 68 71 70 67 64 62 55 51 44 36 32 27 22 19 19 20 18 16 16 17 20 24 28 28 27 25 22 20 20 30 46 51 58
65 65 65 67 70 72 73 76 74 73 75 74 67 62 62 60 55 52 46 40 33 27 23 22 21 20 19 17 18 21 23 25 25 28 29 30 26 27 28 28 31 38 61 73
69 69 70 73 77 78 80 78 80 78 74 66 66 67 62 59 56 51 42 35 28 24 23 22 21 20 20 22 24 24 24 25 27 29 28 27 32 35 38 37 42 57 63 70
75 77 79 81 80 79 80 80 80 78 72 72 69 64 62 60 54 45 35 28 25 25 25 25 24 24 26 25 25 25 25 25 25 25 27 27 30 41 46 51 51 53 58 68
80 82 82 82 82 83 85 85 79 76 74 69 66 64 62 54 43 35 30 28 29 30 30 28 27 27 25 24 25 25 25 24 24 26 27 29 32 39 44 55 57 60 63 67
83 83 83 85 87 89 84 82 77 75 72 69 68 62 49 42 36 33 33 33 34 33 33 32 27 25 24 24 24 23 24 25 27 29 31 34 36 38 42 47 57 67 69 77
85 87 91 95 95 90 85 80 79 75 73 68 55 48 43 39 38 38 39 39 39 38 33 29 26 25 25 24 24 24 25 28 31 34 36 38 41 43 46 51 57 62 71 79
96 96 95 91 88 85 84 81 78 74 63 54 50 44 43 45 46 46 45 44 41 35 31 29 29 28 26 26 25 27 29 32 34 36 39 43 47 51 53 59 64 69 72 78
97 95 92 88 87 87 83 79 72 63 57 51 48 50 52 53 54 53 51 45 39 34 32 32 31 29 28 28 29 31 33 35 36 39 43 48 52 57 60 62 68 74 79 81
95 93 92 92 90 86 80 72 66 61 58 57 57 57 56 58 58 55 49 43 39 38 36 34 32 32 31 32 34 34 36 38 40 44 48 53 57 60 64 69 70 72 79 85
97 97 95 89 84 79 75 70 67 66 66 64 63 64 66 65 63 55 47 44 41 37 36 35 34 33 35 37 37 36 39 41 43 45 47 49 51 53 57 65 72 77 79 79
94 88 86 84 81 79 76 72 70 70 70 70 72 72 71 66 56 48 46 43 39 38 37 36 36 38 40 40 39 39 40 37 36 38 40 42 43 45 47 51 55 59 72 81

GFSNGP_prec_cthk_045.txt.gz
RH
46 42 39 48 54 54 50 50 52 42 42 35 33 32 27 29 31 30 30 33 38 42 44 45 48 51 61 68 75 65 69 85 86 80 84 88 87 87 89 79 85 88 93 92
53 46 41 37 41 45 42 38 43 45 43 38 33 35 33 31 33 33 34 38 40 43 45 45 45 46 52 58 56 62 77 78 81 84 86 82 79 80 84 89 95 93 93 96
53 50 46 48 37 35 33 30 31 43 41 40 37 37 36 37 37 38 40 39 38 37 36 36 38 42 46 49 51 59 66 72 74 78 79 80 83 88 90 91 96 98 93 81
56 51 53 29 28 26 26 23 22 26 33 35 36 41 42 41 39 39 39 39 39 39 38 37 37 39 42 47 52 60 68 75 75 75 78 83 87 91 97 98 92 83 72 49
53 58 44 34 31 29 27 26 24 25 29 33 34 36 39 39 39 39 39 39 38 37 36 36 40 45 50 58 63 65 66 69 74 80 87 88 90 96 96 86 72 48 33 24
60 63 65 46 44 37 33 40 31 32 34 36 38 43 42 40 40 40 39 37 35 34 35 38 42 49 55 60 63 67 73 78 84 93 98 98 90 79 62 46 28 19 18 19
68 59 51 41 39 37 39 33 34 37 39 41 41 41 41 42 39 36 33 34 37 40 43 47 52 56 58 64 69 74 81 90 94 93 91 79 63 46 28 18 17 17 18 20
59 51 49 36 38 36 33 38 41 43 44 46 46 43 39 37 35 36 38 41 44 47 51 52 55 60 65 70 79 86 89 86 80 70 56 41 27 17 16 16 16 18 20 21
40 42 41 40 36 35 37 40 43 42 41 39 38 37 36 37 39 42 45 49 52 54 54 60 65 69 75 78 80 78 73 62 49 39 27 19 15 14 15 17 19 21 24 27
39 42 43 41 39 36 35 35 37 36 36 36 36 39 41 43 46 50 53 56 56 58 63 68 72 73 72 71 67 57 48 41 31 20 15 15 17 19 21 24 26 28 31 36
41 38 37 36 35 35 35 35 36 39 40 42 43 47 48 49 53 56 58 59 62 66 71 73 70 66 63 59 50 39 30 22 19 17 16 16 17 20 24 25 32 38 42 48
39 30 34 37 39 37 37 38 41 43 47 49 50 51 53 56 60 62 62 65 70 74 69 65 62 59 52 39 30 26 22 18 16 16 17 19 19 17 21 24 26 31 38 46
34 35 37 42 43 42 43 45 49 51 52 54 58 58 60 64 65 66 69 72 72 66 61 57 52 45 38 31 28 24 18 15 14 13 12 13 15 18 19 17 20 20 25 25
36 39 45 44 45 47 50 53 56 57 59 60 61 65 68 70 70 70 71 66 60 56 53 49 45 39 34 30 24 17 14 13 12 13 15 18 20 20 21 22 20 16 15 19
45 44 42 46 52 55 56 58 62 65 66 67 72 74 75 73 70 70 65 58 56 53 49 46 42 37 32 25 18 14 14 15 16 18 19 20 21 21 21 24 25 26 22 19
52 51 54 57 61 62 65 67 67 70 73 77 78 77 74 71 69 61 58 57 55 52 51 47 41 34 27 19 16 16 17 19 19 18 18 19 20 22 24 28 31 33 34 36
62 65 67 72 72 71 71 71 73 77 81 82 80 76 73 66 63 64 62 59 57 55 51 43 34 28 21 19 19 19 20 18 18 18 18 20 21 22 26 31 34 40 45 47
68 71 80 81 81 82 81 79 81 84 85 82 76 70 67 68 68 65 62 61 59 53 41 35 29 24 22 21 22 20 19 18 18 19 21 21 22 24 27 30 33 40 44 52
77 86 92 89 87 85 85 86 88 88 83 73 70 73 74 72 67 64 63 60 49 41 37 31 27 25 25 24 21 20 19 19 21 22 22 23 24 26 29 31 32 35 41 54
91 89 87 86 89 88 89 91 90 85 75 80 81 76 73 68 67 65 57 48 44 40 34 31 29 27 25 23 22 21 23 25 24 24 25 26 27 29 32 34 36 39 42 47
85 86 88 91 93 94 91 91 87 85 84 80 77 73 71 70 63 56 51 48 44 39 35 32 31 28 26 25 25 28 30 28 26 26 28 29 30 33 36 39 41 43 48 53
92 95 95 93 92 92 91 89 87 84 80 76 77 74 68 62 61 57 53 49 44 40 38 35 31 29 28 28 31 32 30 29 28 30 32 33 34 36 39 42 45 49 51 57
96 95 95 96 97 96 94 90 86 82 81 79 74 70 67 66 63 59 55 50 48 47 45 38 34 33 32 33 33 32 31 30 32 34 35 36 38 41 43 46 48 51 56 59
97 97 97 97 97 96 91 88 86 83 79 76 75 74 71 67 63 58 56 56 55 50 42 38 37 37 37 35 34 32 32 33 35 35 36 37 38 38 39 39 40 43 51 62
98 97 97 97 95 92 90 86 84 83 82 81 79 76 71 65 63 62 63 61 55 48 45 42 41 40 37 35 33 33 35 35 33 33 31 32 33 36 37 38 38 40 44 48
98 97 97 95 95 94 89 89 89 88 85 79 75 70 66 65 66 67 64 60 55 50 46 43 42 40 37 35 36 37 37 34 31 30 32 34 35 38 39 39 39 43 48 51
98 97 97 97 96 96 95 92 90 82 77 74 70 68 69 70 69 68 66 61 56 49 44 42 41 39 38 39 39 39 35 30 30 32 35 36 38 40 40 41 44 55 62 65

GFSNGP_prec_cthk_048.txt.gz
RH
38 40 44 46 42 45 47 50 54 46 48 44 39 38 37 32 26 27 32 34 35 36 43 48 49 49 50 52 54 56 55 58 62 75 87 81 78 76 83 79 85 84 86 92
46 45 45 45 40 46 53 52 47 40 38 36 37 40 42 37 37 37 39 40 41 42 44 45 45 44 46 47 50 53 56 55 58 66 70 72 74 77 79 77 87 90 92 95
54 57 57 53 39 37 35 33 34 37 31 30 34 38 39 39 39 42 42 42 40 39 38 37 35 36 38 40 42 44 45 50 62 68 73 74 74 72 80 88 94 96 98 90
66 64 57 37 32 30 30 28 27 28 28 28 27 33 38 39 42 44 44 41 40 39 38 37 37 36 36 38 42 47 57 66 69 71 71 74 81 88 93 97 98 97 82 63
66 62 46 33 27 35 33 27 26 26 27 27 28 28 33 37 39 42 42 40 40 39 37 36 36 37 41 45 51 60 65 67 68 72 76 83 89 95 97 96 86 72 50 28
66 58 51 34 35 38 39 35 33 33 33 33 35 37 41 42 42 42 42 40 38 35 33 34 38 43 48 53 58 60 64 68 71 78 85 89 91 87 82 72 57 33 18 16
66 60 50 40 38 34 35 31 31 32 36 37 40 39 40 42 42 41 39 37 35 35 38 42 46 50 52 54 57 63 68 73 77 82 86 84 75 65 53 35 20 15 13 14
67 66 58 40 34 30 28 30 31 34 37 39 39 41 43 44 41 38 35 35 37 40 44 48 49 51 53 60 66 71 75 76 77 75 71 62 49 37 25 16 14 14 16 16
54 54 50 41 25 27 31 32 34 36 39 41 42 44 42 39 37 35 37 40 43 47 50 52 54 58 64 67 71 71 69 66 62 56 46 35 27 22 18 17 18 19 21 22
57 52 48 35 30 34 34 34 36 38 38 38 38 38 37 37 39 41 43 46 50 53 56 58 60 66 70 67 64 61 57 53 45 35 28 26 23 19 17 17 17 18 20 22
58 56 40 31 30 29 29 31 32 34 35 35 35 37 40 43 45 48 50 55 59 61 62 64 66 68 65 61 56 51 44 39 35 29 25 21 16 12 11 12 15 17 18 18
56 48 27 26 26 29 29 30 32 33 35 37 40 44 46 49 52 55 59 64 66 68 67 69 69 62 56 52 47 44 39 34 29 26 22 17 13 12 15 16 16 15 16 18
56 46 32 30 30 32 36 36 36 37 40 43 48 51 53 57 62 65 69 71 72 71 70 65 58 54 53 48 44 40 37 33 29 24 18 15 15 15 12 11 12 12 14 17
59 54 44 35 35 38 41 42 43 46 49 52 54 58 62 66 69 73 77 76 73 67 62 58 56 54 50 46 44 42 37 29 24 19 17 17 15 13 13 13 13 11 12 17
66 57 47 45 43 44 46 48 49 53 56 61 66 70 72 74 78 80 79 73 66 62 59 59 57 54 51 50 46 36 29 26 21 19 17 15 14 15 16 17 19 19 16 16
67 66 64 59 52 51 54 57 60 65 70 74 75 77 79 82 84 83 75 67 62 63 63 60 57 56 54 47 36 31 27 23 20 18 16 16 18 19 20 21 21 22 22 24
70 74 71 70 62 63 67 74 78 80 81 81 83 85 85 87 83 75 67 65 68 65 64 61 60 55 45 38 34 31 25 22 20 19 19 20 22 23 23 23 24 25 26 27
78 75 74 73 74 75 82 90 92 91 89 88 87 89 90 83 73 68 72 73 70 66 64 63 53 46 41 37 34 31 26 22 21 22 23 24 25 26 25 26 28 28 28 29
86 84 84 86 84 86 91 93 93 91 90 93 94 90 80 73 77 79 76 73 69 67 61 54 50 47 42 39 36 29 24 24 26 26 26 26 27 26 26 28 29 30 32 34
85 86 86 87 89 93 95 94 90 90 94 94 85 75 83 85 82 77 75 72 66 61 58 55 52 47 44 40 32 27 27 27 28 28 28 27 26 27 28 28 30 33 36 39
85 86 89 94 95 93 93 93 95 96 87 79 88 89 86 82 77 77 71 66 65 63 61 58 53 48 41 33 30 29 30 31 31 30 29 27 28 29 28 29 32 35 38 40
94 90 92 94 95 96 98 98 91 86 92 94 90 85 80 79 76 72 70 69 68 66 63 58 51 42 37 34 33 34 35 34 32 31 29 29 29 28 26 25 28 30 32 33
95 94 96 97 97 98 96 95 95 95 91 86 83 83 80 76 75 74 73 73 71 67 64 54 47 42 39 37 37 38 36 35 34 32 32 31 28 25 25 26 28 32 34 34
96 97 98 98 97 97 97 97 94 90 87 87 85 80 79 79 80 79 77 73 69 64 58 54 48 45 43 41 41 38 37 35 33 35 34 30 27 26 28 29 31 34 35 36
98 98 97 98 98 97 97 95 92 91 88 86 86 87 87 85 82 78 75 72 67 63 59 54 49 49 47 44 40 38 35 35 37 37 32 29 28 29 31 32 35 38 38 41
98 97 98 98 98 98 97 94 92 92 93 94 94 92 90 85 81 79 75 72 67 64 61 56 53 51 47 42 38 37 38 40 39 34 31 30 30 31 32 34 37 41 43 49
97 98 98 98 98 98 97 97 97 98 98 98 96 93 90 89 86 80 76 73 71 67 62 59 58 53 45 40 40 42 42 39 36 32 32 32 32 32 33 35 40 45 50 58

GFSNGP_prec_cthk_054.txt.gz
RH
33 35 37 35 38 44 48 44 47 42 40 38 39 40 38 36 38 37 36 38 37 38 41 45 49 49 50 53 52 51 52 54 53 54 53 55 60 62 64 64 66 68 79 80
40 37 37 36 35 40 39 38 38 35 33 36 39 41 41 35 32 35 39 39 42 41 46 51 54 57 57 57 59 57 58 55 54 55 55 57 56 54 59 61 67 71 79 78
44 43 45 48 37 36 35 37 37 38 35 34 30 31 30 31 29 32 34 39 44 44 49 53 53 53 55 54 53 49 46 45 44 44 46 50 55 58 63 62 66 76 80 86
50 56 67 33 36 39 39 40 40 34 28 29 28 28 30 33 33 32 35 37 41 43 45 48 47 49 49 48 47 44 42 42 47 51 55 57 55 58 59 65 72 76 79 78
66 50 39 38 38 40 41 38 35 28 31 33 35 33 32 32 35 37 38 36 36 38 40 44 48 48 48 44 41 38 40 44 49 52 53 57 59 62 64 66 69 68 66 60
63 56 61 33 36 41 42 31 35 31 25 26 32 32 28 31 34 35 36 37 39 44 48 49 48 46 41 39 39 42 44 46 50 54 58 60 62 64 63 58 55 47 40 35
65 64 47 37 35 41 45 25 36 33 30 24 29 29 32 35 38 40 41 42 44 47 48 48 45 42 39 42 45 48 50 53 57 60 62 63 57 50 44 41 36 34 32 30
70 77 63 41 43 40 30 34 34 38 32 24 29 33 36 39 41 45 46 46 48 49 48 45 42 43 46 48 51 52 55 58 59 56 51 45 40 36 36 36 34 33 30 29
61 53 48 48 44 44 41 39 37 41 35 26 31 36 39 43 45 47 47 47 46 46 42 42 45 48 50 52 54 55 56 52 49 46 40 38 37 37 38 38 36 35 32 32
67 57 57 56 50 48 47 42 44 42 34 28 32 37 42 45 46 46 46 45 44 43 44 47 50 52 54 56 56 56 53 49 45 40 39 38 38 40 42 38 32 30 34 33
66 61 60 57 56 54 52 50 43 38 30 28 33 38 40 43 45 46 47 47 46 48 52 53 54 55 56 59 60 56 50 46 42 40 40 40 42 41 37 33 31 29 30 26
47 49 67 64 58 61 60 55 46 35 30 30 33 35 39 41 46 48 47 48 52 55 57 58 58 60 63 62 59 53 49 46 44 45 44 45 46 44 38 35 34 31 29 26
45 53 60 64 60 59 62 60 50 45 34 32 34 37 40 44 46 46 50 55 58 59 62 64 65 66 64 62 56 52 49 48 49 48 49 46 42 41 44 44 36 33 29 27
40 46 51 57 63 65 64 63 59 54 47 41 37 40 43 46 49 54 58 62 65 69 71 71 70 69 66 61 57 55 52 53 53 52 49 44 43 42 41 41 41 38 33 27
38 38 45 54 65 66 68 68 66 60 56 52 52 52 56 58 60 63 69 72 75 79 79 78 73 70 65 61 59 60 59 57 55 49 46 45 44 43 41 40 39 36 34 33
50 54 56 61 66 64 67 70 72 71 64 63 65 67 68 71 75 79 83 85 85 85 81 75 72 68 65 65 67 65 63 56 52 50 48 48 47 43 40 39 38 37 37 34
50 59 66 69 71 72 72 74 75 78 76 76 76 78 79 83 86 90 93 96 94 85 81 76 70 70 76 70 69 62 58 57 54 52 52 50 45 41 38 37 36 36 36 29
65 60 62 65 67 72 74 76 79 81 83 87 87 87 90 93 95 96 97 94 89 84 76 76 82 77 73 69 64 63 60 58 56 55 52 47 43 40 38 37 35 32 29 26
58 57 56 60 67 73 80 85 87 88 89 93 96 97 98 99 97 97 94 87 81 82 88 85 79 74 72 69 65 64 62 60 58 54 50 46 43 41 40 37 33 28 26 25
73 73 74 83 89 88 88 91 96 97 98 98 98 98 98 97 94 89 89 90 94 90 86 80 77 75 71 69 67 66 65 60 56 52 49 46 45 44 42 36 31 30 27 27
91 93 97 99 99 99 98 99 97 95 97 98 97 97 96 95 94 96 96 96 92 87 84 82 78 75 73 71 70 67 62 59 57 56 54 52 49 45 41 38 35 32 30 30
98 95 96 98 98 97 97 97 98 97 97 97 97 97 96 96 97 97 96 92 88 86 85 82 81 79 76 74 72 69 67 65 64 62 60 56 50 47 45 42 37 33 32 33
96 97 98 97 95 97 97 97 97 97 96 97 97 97 97 97 96 94 92 91 89 87 85 85 85 83 81 79 78 77 74 73 72 69 62 56 55 52 48 43 38 35 36 34
96 96 97 97 97 97 96 97 97 97 97 97 97 97 96 96 97 96 92 90 88 88 89 90 91 91 89 85 83 82 80 76 72 68 65 63 61 55 49 42 39 39 37 36
97 97 97 97 96 97 97 97 97 97 97 97 97 97 97 96 94 92 92 93 95 97 97 97 95 93 91 88 84 81 77 75 76 71 70 68 60 53 46 43 43 42 40 38
97 96 97 97 97 97 97 96 96 97 97 97 97 97 97 98 98 98 97 97 97 97 97 96 96 94 88 83 80 81 79 77 75 71 68 62 56 50 47 47 46 43 41 39
97 97 97 97 97 97 96 96 97 97 97 98 98 98 98 97 97 96 96 96 95 93 90 86 84 83 81 80 79 77 74 71 68 65 60 54 51 49 47 46 45 43 44 44

GFSNGP_prec_cthk_057.txt.gz
RH
41 45 45 43 46 47 49 50 52 49 48 47 48 47 47 52 45 34 36 41 42 42 41 39 43 46 43 44 46 49 54 58 58 60 63 62 58 57 63 62 66 64 63 67
45 48 45 41 40 39 41 42 43 44 44 46 40 39 44 44 42 40 36 35 44 51 55 48 47 48 50 51 56 62 64 67 66 67 62 58 56 53 55 57 58 58 61 66
54 51 47 50 37 41 40 42 42 41 42 45 48 44 41 39 41 41 39 38 39 46 50 52 51 55 61 64 62 65 63 63 57 52 48 45 44 48 52 55 56 58 60 65
63 58 66 40 40 36 36 37 39 37 38 46 44 37 35 33 33 33 35 35 37 42 47 50 50 52 56 57 59 58 54 52 50 47 44 45 49 51 50 51 55 58 62 63
66 56 46 38 38 37 37 37 43 40 42 39 37 32 33 30 34 37 38 42 43 44 45 45 46 48 48 48 52 53 51 46 43 40 43 46 48 50 53 55 57 59 56 52
69 60 58 36 39 35 39 41 38 40 40 32 28 30 22 30 37 35 36 38 39 41 40 39 39 41 45 49 50 48 43 39 39 42 45 49 51 54 55 55 50 46 42 39
74 64 46 38 38 42 50 29 49 45 34 28 31 30 25 26 31 33 35 37 38 38 38 40 44 49 51 50 46 42 39 42 45 47 50 52 53 52 47 42 40 41 37 39
72 74 69 44 43 42 36 36 44 38 34 33 34 34 25 27 30 35 38 40 43 44 46 49 52 52 50 46 41 42 45 46 48 50 51 50 48 44 38 38 39 40 41 41
67 66 57 54 48 47 50 52 52 45 39 35 36 38 30 28 32 36 40 43 46 47 50 52 51 50 44 42 45 47 48 49 50 50 48 45 42 39 40 42 44 45 43 43
69 64 65 60 54 54 52 55 58 51 47 39 38 39 33 30 35 37 41 45 47 47 47 48 48 45 44 47 49 51 51 52 53 49 46 44 42 42 45 47 44 44 44 43
44 44 46 62 59 61 63 61 58 51 48 44 39 33 31 32 36 40 43 45 45 46 48 48 45 46 50 52 53 54 56 55 52 49 48 47 46 46 45 45 41 38 39 38
48 38 40 43 55 62 65 66 62 56 53 52 43 34 32 32 35 39 40 40 44 47 49 48 50 53 57 59 60 61 59 58 54 50 48 50 50 52 50 45 41 40 40 39
33 34 36 41 51 57 64 69 66 61 59 58 51 45 39 40 39 40 41 43 46 48 49 52 56 61 65 67 67 66 64 57 53 50 53 54 53 52 50 50 49 47 44 39
30 34 36 42 49 56 63 66 64 61 65 64 62 58 54 49 49 45 48 51 54 55 60 66 68 70 72 70 69 65 60 57 55 57 57 54 56 52 53 54 53 53 49 43
36 36 33 36 36 45 51 60 67 67 69 68 66 65 63 61 58 61 63 64 66 73 75 75 78 80 81 76 71 66 64 59 60 61 59 55 53 52 53 55 56 52 49 47
40 46 44 42 43 47 50 52 55 62 70 68 69 69 73 70 69 67 70 73 77 78 79 82 82 86 80 74 71 68 64 68 68 64 61 60 58 57 60 58 55 53 50 48
45 45 44 43 48 50 63 67 66 70 74 73 74 75 77 77 79 79 81 81 83 86 86 91 86 80 78 76 82 84 79 70 66 65 65 63 60 60 58 57 55 53 51 49
50 48 50 55 61 58 61 66 74 76 75 77 77 78 85 88 87 87 90 92 94 97 94 93 89 85 88 85 81 77 73 71 69 67 66 64 60 57 56 58 57 55 53 51
59 64 65 71 73 69 67 68 70 69 71 74 77 88 89 92 97 97 98 98 97 97 95 92 96 90 87 81 80 79 75 72 71 69 66 63 62 63 62 63 61 59 57 54
78 76 78 77 75 71 70 71 72 77 89 95 99 98 98 98 98 97 97 96 96 96 96 96 90 87 86 85 80 77 75 73 72 71 71 67 70 70 70 68 66 64 59 52
93 91 92 93 90 85 84 89 94 95 97 98 97 97 97 97 97 97 97 96 96 97 95 90 89 88 85 82 80 78 77 77 77 78 81 80 79 77 76 75 70 62 58 56
97 98 98 97 96 97 95 96 97 97 97 97 97 97 96 97 96 97 97 96 96 95 93 93 91 89 87 84 83 82 82 83 82 87 87 84 82 80 76 70 66 63 60 57
97 97 97 96 96 96 97 97 97 97 96 97 97 97 97 97 96 97 97 96 97 97 97 93 90 89 90 91 91 92 95 95 91 88 87 86 81 74 71 70 66 64 62 58
97 97 97 97 97 97 96 97 97 97 96 97 97 97 96 97 97 97 97 97 97 94 93 92 95 96 96 95 95 97 95 92 89 86 82 79 76 74 73 70 65 62 56 52
97 97 97 97 97 97 97 97 97 97 97 97 97 97 97 97 97 97 96 95 95 96 95 95 95 95 95 94 91 89 86 80 74 72 72 70 68 67 65 61 57 52 47 42
97 97 97 97 97 97 97 97 97 97 97 97 98 97 97 96 96 97 96 95 95 95 93 88 85 82 79 75 70 66 64 63 62 62 60 58 56 53 49 47 45 45 46 45
97 97 97 98 98 98 97 98 98 98 98 97 97 96 96 95 94 92 89 83 79 74 69 64 58 51 48 46 46 46 46 47 47 46 46 47 48 48 48 48 48 49 48 49

GFSNGP_prec_cthk_060.txt.gz
RH
48 46 49 48 46 33 46 60 61 60 44 41 45 46 48 48 51 48 49 43 41 42 44 42 41 37 38 42 43 47 51 51 56 59 62 64 67 68 69 64 62 57 58 55
54 46 46 56 53 47 42 41 46 45 46 42 44 49 43 48 47 43 42 40 43 51 48 44 44 46 45 46 49 50 50 60 63 69 72 71 71 66 59 53 49 52 54 54
58 51 51 52 49 45 45 46 44 48 44 39 41 45 45 42 45 40 40 40 41 52 61 58 56 50 48 47 50 56 62 67 68 67 66 65 57 50 46 43 45 49 50 53
73 68 66 45 42 42 40 42 40 39 38 41 41 43 46 49 45 38 35 33 31 39 48 50 54 53 53 55 59 63 64 64 61 63 60 55 51 46 43 44 45 48 51 52
74 70 56 50 51 50 45 39 40 34 34 42 44 50 45 36 34 33 34 33 37 41 45 46 49 55 59 60 57 57 59 57 56 58 56 50 45 43 45 46 48 50 51 50
85 74 71 58 47 42 44 46 36 39 42 43 48 48 37 32 25 27 26 32 38 39 41 45 47 50 52 51 50 49 49 50 54 52 46 40 42 44 46 48 48 47 45 42
84 86 64 50 47 51 53 40 40 49 45 42 50 41 33 27 28 29 27 29 32 35 38 41 43 43 43 42 42 44 50 53 50 44 41 43 45 47 46 46 45 42 38 38
85 89 85 61 56 53 39 35 50 46 50 53 45 38 31 31 32 30 28 29 33 37 38 40 40 40 40 44 48 52 51 49 41 42 44 46 48 47 45 45 42 40 39 40
81 74 69 63 62 56 55 56 56 58 65 51 43 38 36 33 33 33 31 32 36 39 41 43 44 44 47 50 52 49 44 41 43 44 46 48 48 45 44 44 43 42 42 43
70 65 68 78 71 63 60 60 56 59 58 55 51 46 43 37 36 31 33 37 39 42 44 46 47 48 48 49 49 46 43 45 47 47 48 47 46 47 47 46 44 42 45 45
72 64 61 65 68 71 65 65 61 62 62 64 56 51 48 44 38 34 35 39 43 46 48 49 50 49 50 50 49 47 48 50 51 52 53 50 52 51 48 45 44 46 46 44
58 43 45 45 43 45 46 47 50 60 60 65 60 57 54 52 49 40 38 41 45 49 51 50 48 50 52 52 51 51 53 56 60 58 56 55 56 53 51 51 51 50 47 45
29 26 41 45 47 44 43 48 56 66 66 69 66 65 62 61 62 58 51 47 48 50 50 49 50 53 56 56 57 59 69 71 67 64 64 62 61 59 59 61 59 55 53 51
42 39 41 44 41 36 41 51 58 62 63 68 69 67 64 66 70 68 64 62 61 58 57 56 57 58 64 65 67 75 77 71 72 71 69 65 62 63 64 63 63 62 62 58
29 35 41 39 35 33 34 47 55 60 61 67 70 70 72 71 75 74 73 72 71 70 67 67 67 68 73 77 79 75 79 81 76 71 68 67 68 67 64 64 64 66 64 62
43 35 34 41 40 38 36 38 41 48 55 58 62 73 71 72 77 76 77 77 78 80 78 76 74 78 79 79 81 87 83 76 70 72 79 77 72 71 71 71 70 68 65 62
56 55 54 57 48 43 42 44 47 52 59 63 66 67 68 76 80 79 82 84 83 85 84 83 86 84 85 89 89 85 86 89 89 84 82 80 76 75 74 70 67 66 65 63
54 53 55 53 47 49 50 53 54 60 63 64 76 80 85 81 82 84 85 82 87 91 90 90 91 94 94 95 97 97 95 88 86 85 80 79 77 75 70 67 68 71 71 70
62 60 60 57 57 59 60 62 66 71 71 71 74 73 84 90 88 88 88 93 96 97 97 96 97 97 97 96 95 92 91 88 86 85 81 78 76 74 74 75 79 77 76 76
68 66 65 63 63 66 73 76 76 82 92 88 86 83 85 84 84 92 97 97 97 97 97 97 97 97 96 96 96 93 88 87 85 83 81 79 79 82 82 84 86 83 80 77
90 91 89 86 84 83 83 87 90 91 90 87 86 87 92 97 97 97 97 96 96 97 97 97 97 96 96 93 92 91 89 88 86 85 87 91 91 90 90 89 85 80 77 72
96 97 96 97 97 98 96 96 97 97 97 96 97 97 97 96 97 97 97 97 96 97 97 97 97 97 97 96 93 91 91 92 94 95 96 96 92 88 83 80 77 71 67 66
97 97 97 97 97 97 97 96 96 97 96 96 96 96 96 96 97 96 97 97 97 97 97 97 97 96 96 96 97 97 97 97 95 94 90 85 82 78 73 70 70 68 66 64
97 97 97 96 96 96 96 96 97 97 96 96 96 96 97 97 97 97 97 97 97 96 97 97 97 96 96 95 94 91 86 81 77 75 73 69 65 64 65 64 61 58 54 50
97 97 97 97 96 96 96 97 97 97 97 97 97 97 97 97 96 97 97 97 97 96 95 94 91 86 80 74 69 66 64 59 54 49 47 45 45 45 46 46 47 47 47 47
97 97 98 97 97 97 97 97 97 97 97 97 97 97 98 97 97 96 95 93 91 85 76 67 60 54 49 45 41 38 36 36 37 38 40 41 43 45 48 50 51 51 50 51
97 98 98 97 97 97 97 97 97 97 97 96 96 96 94 91 85 77 68 60 54 48 45 43 42 39 34 32 31 32 33 36 39 40 43 45 47 49 52 54 55 54 55 57

GFSNGP_prec_cthk_063.txt.gz
RH
53 52 56 59 55 45 43 48 61 55 58 48 50 51 52 51 50 49 45 44 39 39 34 26 29 38 46 44 49 58 58 49 48 54 54 55 53 52 61 63 65 62 58 52
57 55 56 59 57 55 49 45 52 56 63 49 40 44 48 49 49 43 47 48 44 40 36 32 31 33 34 38 44 46 42 45 47 50 54 56 61 62 64 65 61 54 47 46
61 58 57 60 52 53 54 50 45 53 46 48 48 47 48 43 47 43 43 37 42 44 41 40 33 34 39 42 45 45 41 44 45 51 56 66 63 58 61 55 51 46 42 45
76 67 71 47 47 50 55 52 46 50 46 46 45 47 43 45 46 50 44 42 37 36 35 34 36 37 43 43 45 47 50 49 54 56 60 59 56 54 53 53 45 40 42 43
77 72 56 47 44 46 52 51 48 46 45 44 44 45 45 43 46 43 42 40 35 33 33 34 37 40 39 38 44 49 52 57 60 59 55 53 53 52 54 47 39 40 42 44
92 84 69 54 48 47 54 53 47 43 41 42 42 50 45 46 46 50 47 39 32 29 30 33 37 38 40 45 46 51 57 61 60 56 54 52 51 54 50 40 42 44 45 45
91 93 74 60 47 54 62 51 48 44 40 46 47 46 50 50 51 48 42 31 27 30 30 32 33 35 40 43 47 48 48 48 48 47 48 52 52 48 41 43 45 45 42 40
93 96 91 67 62 57 52 52 52 46 44 46 45 46 48 45 49 46 37 30 30 30 33 35 35 36 38 41 40 40 40 43 46 50 51 50 45 42 44 46 47 44 41 40
66 75 72 67 70 65 65 64 62 57 48 49 56 49 51 56 52 43 35 33 33 31 33 37 39 39 40 40 42 44 47 50 52 51 50 46 44 45 47 48 46 43 41 44
54 61 59 61 69 70 72 74 68 69 58 60 59 62 64 55 48 45 42 39 35 35 36 40 44 46 47 47 49 51 53 54 53 51 49 47 48 51 51 47 45 45 48 51
56 61 70 70 64 70 71 74 69 65 62 60 53 58 63 65 58 54 51 49 44 40 41 43 46 49 52 53 55 56 57 57 57 56 53 52 54 55 58 58 56 54 55 56
56 72 79 71 70 70 65 68 65 63 52 56 60 60 56 55 62 60 61 61 60 59 55 52 51 53 55 57 59 60 60 62 64 65 59 59 62 67 68 65 62 58 57 57
42 43 56 51 37 45 50 47 55 58 58 54 57 60 63 62 67 68 68 68 69 70 71 71 69 67 66 67 68 67 68 70 69 69 72 72 74 74 70 68 66 64 64 69
46 46 39 37 32 32 47 54 42 35 48 55 58 63 64 67 72 73 75 72 76 78 78 79 80 80 80 80 78 77 78 80 78 75 77 77 78 75 70 66 69 77 74 71
53 52 43 43 51 55 50 44 44 41 45 60 65 66 70 70 72 76 76 76 80 85 84 85 86 88 88 87 86 83 84 86 85 80 81 82 75 71 74 83 82 81 82 81
54 55 51 48 44 43 41 34 32 35 38 42 51 53 60 68 74 82 78 78 82 78 85 90 90 91 91 90 90 90 90 84 86 89 84 81 86 91 88 87 84 84 85 84
57 55 48 53 55 55 50 46 42 45 47 49 50 54 58 65 69 71 72 78 77 81 92 92 93 95 95 91 91 89 94 94 91 96 97 97 97 95 89 87 88 87 82 79
79 76 78 77 71 65 62 58 56 56 57 58 60 62 64 66 72 74 73 96 88 94 92 94 94 92 94 92 96 96 97 97 97 96 96 96 96 92 89 89 84 82 81 81
83 83 79 72 68 67 69 68 65 64 67 68 67 69 77 80 77 78 78 88 84 87 97 96 96 90 97 96 97 97 97 97 97 97 97 97 92 89 89 85 84 86 89 89
74 75 74 74 77 78 75 74 72 69 68 67 72 78 83 86 89 94 96 95 88 90 95 91 91 91 94 97 97 97 97 97 97 97 97 96 91 92 92 95 95 95 93 89
80 79 80 83 82 80 76 77 78 80 83 85 84 85 90 97 97 97 96 95 92 93 97 97 97 97 97 97 97 97 97 97 97 97 96 97 98 98 97 94 88 81 76 74
97 96 95 94 95 97 98 97 96 96 96 97 97 97 97 96 96 96 97 97 97 97 97 97 97 97 97 97 97 97 97 97 98 97 96 93 90 85 79 76 74 71 68 65
97 97 97 97 97 97 97 96 97 97 97 97 96 97 96 96 97 97 97 97 97 97 97 97 97 97 97 97 97 97 96 92 87 82 76 72 70 68 64 61 58 57 56 55
97 97 97 97 97 96 96 97 96 96 96 97 97 97 97 97 96 97 97 97 97 97 97 97 97 96 94 90 84 77 71 63 57 53 49 44 40 39 39 41 42 42 44 46
96 96 97 97 97 97 96 96 96 96 96 96 97 97 97 97 96 97 96 95 95 93 90 85 78 70 62 54 46 41 39 38 35 32 31 32 34 36 39 43 45 46 47 49
97 97 97 97 97 97 96 96 96 96 96 96 96 97 97 96 94 91 86 80 72 62 54 49 44 39 36 33 30 27 27 27 28 30 32 34 37 40 42 45 48 51 54 56
97 97 97 97 97 97 96 96 96 97 96 95 91 87 79 70 62 55 50 47 43 41 39 35 32 28 25 25 25 25 26 28 31 33 36 39 41 44 48 51 54 57 59 60

GFSNGP_prec_cthk_066.txt.gz
RH
49 51 52 56 57 51 51 50 56 47 46 44 47 45 50 51 47 50 48 44 39 45 43 35 34 35 36 37 44 51 52 46 49 57 58 66 69 63 67 65 72 73 72 70
58 57 55 55 59 58 55 53 53 49 44 53 52 50 52 51 52 52 50 46 41 44 42 38 37 36 39 39 41 42 54 53 49 49 55 66 60 66 70 72 73 68 70 72
72 66 61 66 52 60 58 59 57 55 48 42 47 49 46 49 48 48 45 44 46 46 38 35 32 28 33 39 43 50 52 51 53 56 59 58 61 66 70 73 68 68 64 61
85 78 81 43 50 55 58 56 52 50 51 44 46 46 50 48 50 48 44 43 43 42 40 38 30 29 29 32 37 46 49 49 53 56 61 58 61 64 67 66 67 61 59 60
96 80 61 55 52 53 56 52 53 54 54 51 47 46 43 39 42 46 47 43 40 40 38 36 33 31 35 37 40 44 46 46 52 59 61 64 67 69 69 63 57 55 56 51
95 97 78 50 54 57 57 60 51 54 58 57 53 51 49 43 37 42 46 46 44 44 42 43 37 34 36 39 42 42 42 49 50 55 61 64 67 64 59 56 50 51 50 46
91 97 87 69 65 59 67 52 57 59 54 56 54 50 48 46 40 43 47 45 47 52 46 40 34 35 38 41 40 43 49 53 52 55 58 60 56 53 51 49 50 50 47 46
95 97 94 72 69 70 67 61 60 56 56 57 56 55 51 47 44 41 47 44 47 44 44 43 37 36 39 42 43 45 48 50 54 55 51 50 49 50 52 51 51 47 46 47
75 72 61 59 71 66 69 69 67 63 63 61 61 58 53 47 49 44 45 47 47 47 47 40 36 35 37 39 41 44 48 51 48 48 50 53 57 55 55 54 51 49 49 49
69 55 52 51 51 55 70 78 75 71 63 65 64 61 58 51 53 55 56 55 55 51 44 42 39 36 38 40 44 51 54 52 54 56 57 58 59 61 62 60 57 56 56 56
53 48 50 51 47 52 67 72 72 79 73 70 67 64 69 63 61 61 61 64 62 58 56 53 51 49 46 45 48 52 55 57 58 60 63 65 67 68 69 69 71 71 64 60
64 53 43 45 43 51 66 69 70 66 76 77 72 70 69 63 64 63 64 64 68 65 65 64 63 62 60 61 63 67 68 68 69 71 73 74 75 76 77 76 72 65 67 67
72 62 51 39 37 48 57 61 61 63 67 75 76 67 65 65 66 62 65 69 72 71 71 71 73 72 73 75 77 80 84 84 82 83 85 86 86 85 83 79 75 73 71 70
72 62 46 42 45 45 49 47 40 43 55 58 57 57 64 67 65 68 69 70 71 78 82 83 84 84 86 85 83 87 90 91 91 90 89 88 85 84 85 81 82 81 78 77
72 64 53 47 48 52 48 48 51 50 55 54 48 50 54 60 67 73 75 75 75 80 85 87 92 90 90 90 88 91 93 92 93 94 94 93 92 93 94 88 86 89 96 96
70 67 60 56 60 61 55 56 54 56 47 41 42 45 50 57 62 66 72 74 75 93 95 93 93 90 89 92 90 96 96 97 96 97 95 91 92 95 95 95 97 97 97 96
81 69 62 64 66 69 69 68 64 59 58 53 53 54 55 60 66 69 72 74 72 71 74 81 77 76 86 90 97 97 96 94 92 93 96 97 97 96 96 96 97 97 97 97
81 72 64 60 66 77 81 79 80 83 75 65 63 65 63 63 64 67 71 74 76 79 81 87 85 83 93 96 97 93 92 96 97 96 97 94 95 97 97 97 97 97 97 97
88 82 83 89 93 92 90 92 89 83 76 75 71 67 66 69 69 71 74 76 78 81 86 88 89 90 91 91 91 93 92 94 95 97 97 97 97 97 97 98 98 98 98 98
89 89 93 94 91 89 87 86 85 84 81 79 79 78 75 74 73 73 74 77 82 88 90 96 97 97 96 97 96 97 96 97 97 97 97 98 98 97 98 98 98 98 98 98
87 89 87 85 86 84 82 84 86 88 87 83 85 87 89 90 92 93 95 96 97 97 96 97 97 96 96 96 97 97 97 97 97 97 97 97 98 98 98 98 95 90 85 80
92 94 93 92 93 94 94 93 95 95 95 97 97 97 97 97 97 97 97 97 97 97 97 97 97 97 97 97 97 97 97 97 97 97 97 96 92 84 78 72 66 63 60 56
96 96 96 96 97 97 97 97 97 96 96 97 96 96 96 97 97 97 96 97 97 97 97 96 97 97 97 97 97 96 94 90 83 73 63 55 49 45 42 39 37 37 37 39
96 96 97 97 97 97 96 97 97 97 97 97 97 97 97 97 97 97 97 97 97 96 97 97 95 93 89 80 71 59 49 43 39 37 35 31 29 29 30 32 33 35 38 40
97 97 97 97 97 98 97 97 97 97 97 97 97 97 97 97 96 97 97 96 93 87 80 70 60 51 44 39 34 30 28 26 24 23 24 24 26 28 30 32 34 37 40 43
95 96 97 97 97 97 97 97 97 97 97 97 97 95 93 89 83 75 67 59 53 47 41 37 33 29 26 23 21 20 21 22 23 24 26 28 31 33 35 37 40 43 46 48
86 89 90 90 90 90 90 90 89 87 81 72 63 57 52 47 43 39 35 32 29 26 23 21 20 20 20 20 20 22 24 25 27 28 30 32 34 37 39 42 45 47 49 52

GFSNGP_prec_cthk_069.txt.gz
RH
68 62 59 53 54 55 53 50 55 47 47 42 39 33 31 42 47 48 47 42 45 45 44 42 43 41 38 38 41 44 49 61 63 65 62 62 66 71 68 72 75 72 75 76
81 72 63 60 53 53 55 54 52 52 51 47 43 42 42 38 44 49 53 48 46 46 44 43 48 44 37 35 38 42 43 46 54 64 61 60 60 63 64 65 67 73 77 74
95 83 82 73 45 53 55 57 56 57 54 49 49 46 44 46 44 44 52 52 50 45 43 41 47 47 41 34 33 36 40 47 58 60 59 56 59 59 57 60 65 74 75 72
89 81 97 63 65 53 55 50 55 57 56 54 51 45 44 41 42 45 43 49 48 43 43 43 44 44 42 37 35 35 37 42 51 57 58 57 56 59 59 62 70 78 81 81
75 77 67 63 69 65 62 51 52 52 54 51 50 46 42 42 39 41 44 40 46 46 45 40 40 42 43 38 36 38 41 46 54 59 58 55 56 58 66 75 79 82 84 82
77 82 78 46 58 62 71 60 51 53 58 55 56 52 50 45 41 40 41 40 45 47 46 43 41 43 44 40 40 36 41 44 47 48 52 59 63 65 71 80 85 87 80 70
76 87 68 50 46 58 87 58 64 58 54 54 58 54 53 53 49 44 42 43 43 45 46 43 44 46 44 44 43 38 43 50 48 49 54 60 63 68 71 80 82 73 69 66
79 81 66 53 56 74 86 72 70 65 59 60 61 53 55 55 55 51 47 47 46 51 48 45 44 46 46 49 47 46 48 50 50 53 55 58 63 69 73 66 63 64 67 70
70 63 49 45 47 58 81 87 77 68 65 61 58 60 61 59 56 58 55 53 51 48 49 46 49 52 50 49 50 53 53 51 53 54 57 63 68 65 63 66 68 70 71 72
58 43 56 47 42 51 63 56 57 72 72 71 71 65 63 65 61 61 62 60 56 56 56 55 58 60 62 56 56 54 54 55 56 59 63 67 67 67 69 70 70 72 76 78
49 39 42 54 49 47 57 56 60 54 65 77 75 71 66 69 68 67 69 71 70 66 65 68 70 68 67 66 63 62 66 67 67 68 69 68 70 71 72 76 81 82 83 84
73 67 59 47 49 56 60 61 60 64 70 69 74 76 75 73 69 71 70 71 73 76 74 72 74 76 77 77 75 74 75 79 79 78 83 86 85 83 84 86 88 90 92 92
76 76 82 74 73 70 59 53 51 62 65 58 58 57 75 78 74 77 74 74 76 76 76 76 76 78 80 82 85 86 85 86 88 88 89 90 92 93 94 94 95 94 92 88
84 85 80 72 75 66 58 48 47 54 57 50 54 55 58 65 69 75 81 80 77 77 79 79 78 79 85 88 95 97 97 98 98 97 96 95 96 95 96 96 94 91 88 86
97 94 90 85 76 66 63 54 52 59 69 63 57 59 58 60 61 66 73 79 80 82 83 85 85 86 91 97 98 98 98 97 94 94 97 97 97 97 97 97 97 97 97 97
94 94 91 86 85 80 71 67 70 67 62 58 57 59 60 55 50 55 66 74 80 83 82 86 89 85 84 86 90 94 90 85 87 87 89 93 97 97 97 97 97 95 96 97
92 94 87 82 78 78 76 77 78 78 75 72 68 63 67 65 64 68 70 73 76 79 82 86 88 85 79 78 75 83 87 88 86 83 88 91 93 95 93 90 91 92 96 95
95 93 92 89 85 81 83 84 77 76 77 82 84 83 81 80 72 74 77 76 79 82 82 81 76 76 77 78 79 82 85 87 89 91 94 95 96 96 96 95 97 97 98 98
93 92 86 89 88 85 80 80 79 79 86 91 92 96 94 90 88 87 82 78 81 81 80 80 80 79 79 81 85 88 90 93 97 97 97 97 97 97 97 96 97 98 98 98
89 90 89 90 90 88 85 89 90 97 98 97 97 92 91 90 89 85 83 82 81 82 83 85 87 91 95 96 97 97 97 97 97 97 97 97 97 97 97 97 98 98 99 99
86 86 89 93 92 92 91 91 91 92 91 93 94 90 91 90 93 93 94 96 97 97 97 97 97 97 97 97 97 97 97 97 97 97 97 97 97 97 98 98 96 92 83 72
88 93 95 94 94 93 93 96 96 96 96 95 93 94 97 97 97 97 97 97 97 97 97 97 97 97 97 97 97 97 96 96 96 95 92 87 79 68 57 50 44 41 39 38
94 94 96 96 94 96 95 95 92 95 96 97 96 97 97 97 97 97 96 97 97 97 97 97 97 96 94 92 89 85 78 67 56 49 44 40 36 33 31 29 26 23 24 26
94 97 97 96 96 97 95 95 94 95 95 97 97 98 97 97 97 97 97 97 97 96 93 89 83 73 61 51 45 41 37 34 31 28 26 22 20 20 21 22 24 26 29 31
97 97 97 98 97 97 97 97 95 97 98 98 97 97 97 97 95 93 88 81 73 62 53 49 44 39 34 31 27 23 20 18 17 18 19 20 22 23 25 27 29 30 33 35
93 93 93 93 94 94 94 95 95 96 95 92 87 81 73 65 59 54 50 47 42 36 30 25 21 18 16 15 15 16 17 19 20 21 22 24 25 27 29 31 32 34 36 39
87 86 86 85 85 85 84 79 71 62 57 51 47 46 43 39 36 32 28 24 21 19 17 16 16 16 16 17 18 19 20 22 23 25 26 28 30 31 33 35 36 39 41 44

GFSNGP_prec_cthk_072.txt.gz
RH
75 72 62 60 58 53 53 52 56 48 49 51 48 47 44 36 34 40 53 46 44 41 41 41 39 42 41 39 37 39 44 49 46 48 61 63 61 59 62 71 78 72 77 83
74 70 73 63 58 60 56 54 53 54 50 51 49 49 48 42 37 35 40 48 45 44 46 44 43 44 45 40 37 38 41 42 47 50 56 63 67 62 62 65 73 72 73 79
76 78 78 68 63 63 63 57 55 55 50 52 52 51 50 46 43 41 40 46 51 45 49 46 44 45 48 45 42 40 38 35 39 45 47 63 71 66 67 67 69 76 80 78
84 84 88 52 62 60 70 62 56 54 53 53 53 51 50 50 48 44 42 46 47 51 48 48 44 45 45 52 48 43 41 38 36 36 36 48 59 66 67 65 66 73 77 73
88 87 63 53 48 50 61 60 54 54 52 50 52 52 49 52 53 49 43 37 40 47 48 51 47 44 49 52 50 49 42 38 38 38 40 46 54 59 61 71 70 68 68 73
80 86 76 43 44 47 48 43 52 61 60 55 55 52 50 54 54 51 44 41 42 48 47 48 48 47 49 54 54 54 47 46 46 42 45 51 51 53 58 60 60 60 65 71
82 81 61 42 44 47 61 45 55 60 68 64 58 55 52 55 56 55 51 47 45 45 48 49 50 51 49 52 58 56 54 56 59 56 53 52 50 52 56 59 62 65 70 79
84 80 69 45 53 58 62 63 62 58 72 72 67 66 61 55 53 55 54 54 53 51 51 49 53 57 54 52 52 54 62 62 62 61 59 53 48 53 54 58 66 70 74 84
58 50 43 44 49 52 49 50 54 57 63 82 77 71 65 61 58 59 59 59 57 56 59 59 60 61 61 58 58 60 62 62 60 59 53 54 58 58 60 66 69 74 79 75
63 41 44 39 44 48 50 50 51 54 65 73 74 75 73 67 66 65 63 60 63 62 64 64 71 68 65 69 72 68 67 69 66 65 68 67 65 67 71 74 79 81 80 81
48 45 43 37 40 51 60 53 52 67 62 67 71 72 73 75 74 70 72 69 69 67 68 69 74 75 72 76 80 80 81 77 77 75 76 79 80 84 88 89 88 88 89 89
61 63 61 54 58 57 56 63 61 72 73 66 71 71 59 69 78 74 77 78 74 77 80 78 83 84 84 81 85 83 85 83 81 84 85 87 90 91 92 93 95 96 97 97
66 64 61 61 64 67 66 63 67 76 72 63 70 70 63 59 59 65 70 80 83 89 90 90 86 92 91 87 87 83 85 86 89 93 96 96 97 96 97 98 98 99 97 96
77 72 68 70 70 77 86 88 85 80 76 65 62 62 59 60 58 58 60 74 87 89 95 93 93 93 91 89 92 91 92 93 95 96 98 97 98 98 98 97 97 96 96 96
91 87 80 77 80 84 90 92 86 83 77 68 70 67 70 59 58 58 56 64 71 77 88 97 98 98 98 96 94 93 96 97 93 89 91 94 97 96 93 92 94 95 94 92
92 90 88 88 98 92 91 89 84 78 80 75 75 70 68 65 60 60 65 67 66 78 86 87 90 90 91 92 89 86 87 90 94 91 86 87 93 91 89 90 93 92 89 91
91 91 96 98 96 94 94 90 87 86 84 82 78 76 75 73 68 73 73 78 77 76 78 79 85 86 90 89 93 90 90 94 93 89 85 83 84 87 88 89 92 95 96 96
94 91 91 91 94 91 90 88 87 88 86 87 85 82 78 76 82 95 89 87 88 88 86 83 85 89 91 90 94 89 87 86 86 85 82 83 87 90 92 94 96 97 97 97
89 90 91 92 92 90 85 89 90 88 85 87 89 86 82 86 93 93 93 95 98 95 95 95 92 92 93 92 90 89 88 85 85 90 96 97 97 97 97 97 97 97 97 98
89 88 88 89 91 90 91 91 90 90 91 88 87 88 85 83 96 97 98 96 95 96 96 96 94 93 91 90 91 95 96 97 97 96 96 96 96 96 97 97 97 97 97 93
95 91 92 88 91 93 94 95 95 95 96 95 92 87 90 89 92 97 97 96 96 92 96 96 97 98 97 97 97 96 96 96 96 96 96 95 94 89 80 70 60 53 48 44
94 94 92 92 93 93 94 97 96 96 95 96 97 96 95 95 94 95 96 96 97 97 97 98 97 97 96 94 92 90 87 82 76 68 59 53 48 44 40 37 34 30 29 29
94 95 94 95 96 95 96 97 97 97 97 98 98 99 98 95 95 96 96 98 98 97 96 94 89 82 74 66 60 54 49 45 42 39 36 34 31 28 27 25 23 21 21 22
95 94 95 96 98 98 97 97 97 97 97 97 98 97 97 97 97 97 97 93 86 76 65 58 53 48 44 41 38 36 34 32 29 26 24 22 19 18 19 20 21 22 24 25
97 96 98 98 97 97 97 97 97 97 97 97 97 96 93 85 75 69 62 56 52 47 44 40 37 34 31 27 23 21 18 17 16 16 17 18 19 20 22 23 24 25 26 28
98 98 98 98 97 98 98 97 96 92 85 76 70 65 61 57 53 49 45 40 35 28 23 19 17 16 15 15 15 15 16 17 18 19 20 21 22 24 25 26 28 29 31 33
87 87 88 88 90 88 81 73 67 64 60 55 51 50 48 45 40 34 28 23 18 16 15 15 15 15 16 17 17 18 19 20 21 22 23 25 26 28 29 31 32 34 37 39

GFSNGP_prec_cthk_075.txt.gz
RH
68 56 55 56 61 58 59 56 53 49 47 49 48 46 46 49 49 42 36 37 42 47 47 44 43 43 43 41 36 34 37 41 44 49 51 49 50 59 60 59 61 70 73 77
69 59 54 56 53 50 54 54 49 50 49 50 50 49 49 49 51 50 42 36 37 42 43 43 46 46 46 44 43 41 39 39 41 47 50 47 51 54 59 62 62 64 67 71
68 69 68 58 50 54 51 53 50 52 49 49 48 49 52 53 54 52 50 40 36 37 38 43 48 52 49 48 50 44 42 41 39 39 41 40 44 49 57 69 68 63 68 71
75 77 76 43 49 59 56 48 45 45 52 48 46 48 50 53 53 55 53 50 44 45 44 40 40 48 52 51 52 51 47 43 43 43 40 39 39 37 47 63 65 64 66 69
77 77 55 42 40 51 60 50 54 49 52 57 49 48 49 56 56 58 58 55 50 48 46 43 42 50 53 50 51 50 50 44 48 49 44 44 42 43 49 58 63 65 65 70
85 84 66 38 48 58 52 50 54 55 58 60 55 59 57 55 54 54 57 59 54 52 47 45 47 48 52 50 49 50 52 54 55 59 53 53 52 50 49 53 56 59 60 61
70 74 55 42 48 51 54 49 53 57 58 65 67 65 65 62 58 58 59 61 58 56 51 46 49 49 48 52 54 57 57 61 60 62 62 62 63 59 57 56 53 52 56 58
74 76 69 55 63 67 66 54 53 50 52 53 60 71 67 68 64 61 60 62 61 57 58 53 50 49 49 55 58 63 68 65 64 65 66 69 72 63 62 60 55 55 59 61
63 60 56 62 61 52 46 44 44 42 43 53 56 65 70 73 74 67 65 62 65 62 63 61 59 58 54 57 63 66 69 71 71 70 72 73 68 65 63 60 63 62 64 67
53 46 44 43 52 58 57 50 46 46 45 50 58 65 69 74 77 74 69 66 66 68 69 67 64 61 62 63 65 67 73 74 71 75 73 74 74 74 76 80 82 79 83 87
58 53 50 46 51 50 48 45 44 46 54 56 69 70 70 68 67 69 76 72 72 72 75 74 72 71 73 75 74 76 84 83 81 77 77 79 79 81 84 85 88 93 94 96
59 65 63 59 60 57 56 56 52 52 55 68 73 82 78 77 71 65 72 76 79 80 83 89 82 82 82 80 78 78 83 84 84 86 88 87 88 91 90 93 94 97 99 99
69 70 67 67 67 65 61 63 65 64 63 64 73 81 89 83 80 69 68 69 72 87 90 90 91 96 93 93 91 91 93 91 91 91 93 93 92 92 96 98 98 98 98 98
74 74 71 71 71 68 66 67 73 70 74 74 80 82 85 82 79 74 70 67 68 71 89 92 91 98 98 99 99 99 98 97 98 98 98 97 96 96 96 93 93 97 98 97
70 76 77 78 77 76 74 76 81 81 91 94 89 86 85 79 85 81 74 66 67 70 71 75 74 88 97 97 96 95 98 98 98 93 89 94 95 95 95 93 92 92 95 96
74 82 87 84 86 89 87 90 89 91 94 93 91 87 86 82 79 79 76 73 67 71 77 76 78 81 94 98 97 96 95 96 93 94 93 93 92 94 96 96 93 87 88 87
76 80 88 93 94 97 94 93 98 95 96 93 91 90 89 89 87 83 83 79 76 80 86 87 86 85 83 79 85 96 89 97 97 93 97 97 96 96 91 90 88 87 84 85
75 78 88 94 97 97 97 97 97 96 93 91 89 88 87 85 86 89 87 90 86 87 89 92 91 89 90 93 94 91 93 96 97 95 95 96 95 95 93 91 88 88 89 93
79 82 84 88 94 96 98 97 98 95 93 90 88 88 91 90 91 91 93 93 92 94 97 95 93 96 97 97 97 97 97 95 95 95 94 96 96 92 93 95 96 96 96 96
83 85 88 90 93 94 92 93 97 95 92 88 87 87 90 94 94 91 94 95 95 96 96 92 95 95 96 96 97 96 96 96 97 97 96 96 96 96 95 93 88 80 70 60
93 90 90 92 92 94 92 92 92 94 94 93 92 93 94 94 95 96 96 95 92 94 94 96 94 96 96 96 96 96 96 95 93 89 83 75 66 60 54 49 45 41 38 35
96 94 97 97 97 95 93 94 94 96 95 94 96 97 97 97 97 97 97 97 97 97 97 97 94 90 85 78 73 67 61 57 54 50 46 44 41 38 36 34 32 30 28 27
97 97 97 98 98 97 97 97 97 97 97 97 96 97 97 97 97 97 97 97 95 88 79 72 66 60 56 54 50 47 44 42 41 39 36 34 32 29 27 27 25 22 20 19
97 97 97 98 98 97 97 98 97 97 97 97 98 98 98 97 92 83 76 70 63 57 53 50 46 44 43 41 39 36 33 31 29 26 25 24 22 19 18 18 19 20 21 23
97 98 98 98 98 97 97 98 97 98 98 95 88 79 73 66 62 60 55 49 45 43 41 39 36 34 30 26 21 18 16 16 16 17 17 18 19 20 21 22 23 25 25 27
98 98 98 98 98 98 97 95 86 80 75 69 67 64 60 55 52 48 43 39 36 33 30 27 24 21 19 17 17 17 17 17 18 19 20 21 22 23 24 26 27 28 30 32
88 88 90 92 90 84 79 76 72 68 67 64 60 57 54 50 45 41 37 33 30 25 22 20 18 17 17 17 18 18 19 20 21 22 23 24 25 26 27 29 31 33 35 37

GFSNGP_prec_cthk_078.txt.gz
RH
56 55 51 53 52 53 56 61 68 58 57 53 49 45 45 44 47 49 47 45 45 50 53 54 52 49 49 46 45 45 45 45 43 47 49 50 46 48 49 54 62 60 59 63
59 55 45 43 43 44 45 46 51 55 53 51 48 46 43 45 48 50 52 49 44 40 45 48 50 50 49 48 46 46 42 38 45 48 47 50 53 55 53 53 59 63 60 63
61 62 56 53 43 40 41 49 52 54 48 45 43 42 44 43 44 46 51 54 51 45 42 48 51 51 50 48 52 48 47 44 44 47 47 49 53 57 57 58 60 62 63 67
64 66 60 42 41 44 51 48 53 49 44 47 45 46 43 43 41 45 49 52 54 50 47 43 41 46 53 56 54 54 50 47 46 48 46 45 41 43 44 46 50 58 69 73
63 58 44 42 42 42 44 47 53 57 54 52 50 43 53 48 48 47 48 55 53 54 51 47 46 49 52 58 58 58 55 51 49 50 47 47 45 45 46 43 45 50 56 69
68 56 52 44 49 43 38 49 53 51 57 55 57 62 56 57 60 53 53 54 54 54 54 52 52 52 52 53 55 57 57 58 58 55 57 53 51 54 54 55 56 53 53 58
63 66 57 57 58 55 57 65 57 50 54 54 55 58 61 58 58 65 58 55 53 53 57 57 56 54 51 50 53 60 60 57 58 58 62 67 61 56 59 59 62 64 59 58
68 68 69 51 56 54 58 58 56 57 59 58 56 54 58 63 62 61 65 62 58 58 60 61 59 59 59 56 59 59 61 60 60 64 66 70 73 69 69 71 73 76 67 64
65 63 68 83 71 61 63 63 60 58 52 48 47 48 57 62 70 68 66 70 68 64 64 66 66 63 67 62 64 66 65 66 68 71 71 75 84 87 84 78 80 74 70 68
78 66 62 64 60 58 54 53 55 53 46 48 47 50 59 63 64 66 72 69 78 76 73 72 71 70 71 69 69 69 71 72 74 75 82 81 84 84 82 83 80 77 78 78
56 53 53 54 57 55 53 52 49 46 44 45 45 49 55 69 80 75 72 69 77 82 82 79 79 74 73 75 78 80 82 81 84 83 81 79 82 84 83 85 82 84 85 86
61 65 61 58 57 58 55 53 51 50 52 56 58 53 59 70 77 81 83 76 73 78 83 87 87 88 85 82 80 79 81 82 84 85 85 87 90 92 88 91 90 93 93 95
65 64 63 62 63 62 62 62 60 57 56 63 64 65 62 65 73 86 86 85 81 76 80 81 88 95 97 96 96 92 93 92 93 93 92 91 93 97 98 99 99 98 97 96
67 66 68 70 71 69 67 65 64 61 62 65 68 71 72 70 73 86 90 89 86 78 73 79 80 86 95 94 97 99 99 99 97 98 99 99 98 98 98 99 98 98 98 98
69 72 71 69 70 70 72 73 72 71 69 73 74 75 82 91 84 86 86 87 87 82 79 78 81 83 86 90 95 95 97 98 99 97 97 98 97 98 97 97 96 95 96 97
71 67 67 66 68 73 76 80 80 80 80 80 87 86 91 96 95 93 93 90 89 86 86 83 79 84 87 85 84 81 91 96 97 97 97 97 97 97 97 96 97 97 96 96
70 70 70 69 72 79 84 87 88 88 91 92 94 94 95 96 96 93 92 90 88 90 89 89 89 84 87 85 89 95 92 92 92 94 94 96 97 96 96 96 96 95 95 96
73 74 73 74 74 76 82 93 92 95 96 97 96 98 96 93 95 92 91 90 88 86 87 90 91 91 90 91 88 87 88 91 93 96 97 96 97 97 97 96 96 96 96 96
72 73 75 79 80 82 82 90 94 94 97 97 97 97 97 94 91 92 92 91 92 91 90 91 90 95 97 95 91 90 93 97 97 96 97 97 97 96 96 97 97 96 95 94
83 84 84 85 84 85 86 88 93 93 92 93 97 97 97 98 97 95 94 93 95 96 96 97 96 94 96 97 93 92 92 93 95 96 96 96 97 96 93 88 82 75 67 59
96 97 97 96 91 88 88 92 95 96 95 95 96 97 97 97 96 94 93 93 95 96 95 96 96 96 96 94 94 92 88 83 77 72 69 64 59 55 52 50 49 49 48 44
95 97 98 98 98 97 94 95 97 97 97 97 97 97 97 97 96 95 95 95 95 94 89 84 80 76 72 67 64 61 57 54 52 51 48 46 45 43 40 38 37 36 35 32
98 98 97 98 98 98 97 97 97 97 97 97 97 97 98 98 98 97 91 84 77 70 66 61 58 55 53 49 46 44 43 41 40 38 36 34 33 31 28 25 22 19 17 17
98 98 98 98 98 98 98 98 97 98 98 98 98 97 93 84 75 70 63 58 55 52 49 47 45 44 43 42 40 38 36 34 32 29 26 22 18 16 16 17 17 17 18 20
98 98 98 98 98 98 98 98 98 98 95 87 79 74 69 64 60 57 54 51 48 46 45 43 42 40 38 35 31 27 23 20 18 17 17 16 17 17 18 19 20 21 22 24
88 90 93 97 98 98 98 97 92 86 81 76 71 66 62 59 55 52 49 46 45 43 41 38 34 30 25 22 20 18 18 17 17 17 18 19 20 21 22 23 24 24 26 28
88 88 88 88 86 82 79 79 77 72 69 66 61 57 51 48 45 43 41 38 34 30 26 24 22 20 19 18 18 18 19 19 20 21 22 23 24 24 25 26 27 29 31 32

GFSNGP_prec_cthk_084.txt.gz
RH
66 85 87 86 83 80 69 75 77 70 69 75 75 66 59 56 54 53 54 54 57 57 56 62 55 54 54 54 55 55 54 52 49 49 52 55 57 56 56 55 54 56 56 58
60 66 67 70 75 69 82 82 71 67 67 64 60 58 60 54 50 52 54 54 55 61 56 56 59 60 57 58 58 59 61 58 58 57 56 55 55 54 55 55 52 55 57 57
64 62 62 60 56 53 47 48 51 54 49 52 54 53 49 46 51 50 51 52 53 52 54 57 57 59 64 61 61 60 58 59 58 57 56 54 54 53 51 54 62 59 58 58
68 61 77 55 55 59 61 53 45 52 70 71 66 66 57 55 44 42 40 41 46 51 52 52 54 57 59 60 64 62 61 59 58 58 58 58 57 56 56 57 59 60 61 63
71 65 59 55 56 56 55 53 57 62 62 68 65 68 66 57 51 50 52 50 46 46 47 49 52 50 55 56 59 66 61 64 63 68 67 64 62 59 63 63 63 61 62 63
65 64 59 42 41 47 45 48 62 66 81 73 66 65 61 55 51 67 65 66 60 53 49 49 48 52 56 60 62 64 68 74 68 70 69 68 67 69 74 70 68 67 68 67
57 61 50 40 53 46 51 67 68 68 66 62 57 49 48 53 50 52 61 62 62 60 56 59 55 55 60 62 62 64 64 65 69 68 68 72 71 77 77 80 71 72 71 69
65 68 67 59 61 61 75 78 79 75 69 63 57 58 56 51 55 62 73 57 56 58 56 55 59 63 64 66 71 75 76 74 73 73 75 79 77 74 75 75 74 78 78 76
58 54 56 63 63 82 82 82 80 75 72 71 63 59 52 54 53 48 45 43 46 52 56 56 54 58 67 71 71 76 78 77 80 81 82 80 81 83 82 83 85 85 90 88
77 82 84 95 89 71 73 68 70 72 67 63 61 60 60 57 51 49 45 43 45 51 54 57 56 56 56 62 70 78 83 84 83 87 89 91 90 93 95 93 94 93 92 97
84 91 93 97 97 95 87 79 75 69 64 61 53 47 46 45 45 46 47 53 51 50 51 54 57 65 64 63 62 64 82 91 94 94 92 93 91 98 98 99 98 97 97 96
98 94 97 97 94 89 81 77 66 58 55 53 50 50 50 49 51 51 52 54 56 57 55 54 54 56 66 74 71 71 71 90 95 96 95 95 97 97 96 99 98 98 95 94
93 90 92 86 85 81 74 64 58 54 56 57 56 55 55 54 55 54 55 54 55 57 60 60 60 63 61 64 68 75 79 78 91 94 98 99 98 98 95 94 90 92 98 95
86 83 78 74 71 67 63 60 60 57 57 59 60 60 60 58 59 58 59 59 59 62 63 65 66 68 68 69 70 74 77 82 86 87 96 97 98 97 95 92 97 93 96 98
87 82 79 74 70 69 67 65 63 62 60 60 61 62 62 62 62 62 62 64 67 66 66 69 73 75 81 83 83 85 84 84 86 96 95 93 92 98 97 96 97 97 95 98
86 81 77 74 71 68 66 66 65 63 61 59 58 59 60 60 61 63 66 68 69 71 73 73 76 84 86 88 91 91 93 91 92 92 95 98 96 97 95 96 97 96 96 96
84 81 79 76 73 69 64 63 62 61 59 58 58 57 59 60 66 68 71 74 75 78 82 86 90 91 95 93 92 90 89 90 90 94 97 97 97 96 96 96 95 96 96 97
80 80 80 73 69 65 63 63 61 61 61 60 61 62 65 68 70 74 86 90 88 88 91 93 93 97 95 93 94 97 97 94 92 90 91 93 95 97 96 94 94 95 96 96
81 78 74 72 70 67 65 66 69 70 70 72 72 71 71 76 80 81 88 96 96 96 97 97 96 97 97 97 96 97 98 97 97 96 96 95 94 95 94 93 96 97 96 93
70 68 67 68 70 71 74 73 73 78 86 86 86 88 84 83 86 87 92 96 97 97 97 97 96 97 97 97 97 98 98 97 96 96 97 94 92 88 82 80 75 69 64 60
71 71 72 73 75 78 82 83 85 89 89 91 93 92 94 93 91 91 91 94 95 97 96 94 91 88 86 81 78 76 74 70 67 65 62 57 53 52 50 49 48 47 46 44
80 81 83 88 91 92 94 95 95 94 94 97 98 97 96 98 97 96 94 94 91 84 79 75 71 68 67 61 58 56 55 54 54 52 50 49 47 46 44 44 42 41 39 37
88 91 93 93 94 96 97 97 98 98 98 98 98 98 98 96 92 85 79 75 70 66 64 61 58 57 59 58 57 54 51 49 48 47 46 45 44 40 38 38 36 31 29 31
85 79 76 76 81 84 86 88 93 97 98 98 98 96 95 89 83 77 76 73 67 62 59 57 57 56 54 51 48 47 47 47 45 42 38 36 35 33 28 27 26 25 23 21
67 70 74 76 78 82 86 88 89 91 94 97 95 88 81 76 71 71 71 65 65 61 56 51 48 47 46 44 43 42 36 32 30 30 30 28 27 23 20 18 18 18 19 20
71 75 78 78 79 84 88 88 88 86 84 81 79 75 69 68 67 65 60 56 53 51 48 44 41 38 37 34 32 31 28 25 23 21 20 20 21 20 19 19 20 21 22 23
69 72 77 77 78 81 85 83 79 72 71 70 69 67 63 60 57 57 55 53 49 45 41 36 29 24 22 22 22 22 24 23 20 20 20 21 21 21 22 23 24 26 27 29

GFSNGP_prec_cthk_090.txt.gz
RH
67 71 81 87 91 93 98 96 97 87 84 85 90 93 95 90 81 74 70 65 66 68 68 66 70 74 68 67 66 61 59 58 56 54 48 44 44 49 52 53 56 59 62 62
51 65 83 72 85 87 90 97 94 93 87 87 88 95 95 92 86 80 76 75 71 68 68 69 65 68 73 72 75 77 72 57 62 62 62 63 61 56 55 56 58 61 60 61
54 62 75 74 73 81 76 89 82 95 86 86 88 92 93 91 84 79 80 80 75 73 71 69 68 69 65 65 68 73 77 77 76 71 74 75 77 75 69 68 68 64 62 61
62 55 66 60 67 67 88 86 82 82 87 88 91 92 89 89 85 83 79 76 75 73 67 62 64 64 66 64 63 66 74 79 82 85 81 79 78 75 73 71 71 69 64 63
55 58 52 58 65 74 76 86 81 87 90 85 81 89 88 91 89 87 83 79 72 66 60 55 51 53 57 62 61 60 64 72 77 81 82 84 80 76 79 81 78 77 77 74
55 62 62 52 64 66 74 84 81 86 90 85 78 86 91 90 91 88 83 76 71 64 55 48 48 47 45 48 55 59 62 63 63 65 69 76 82 81 81 82 82 86 87 87
55 64 56 45 65 67 77 83 80 85 84 84 84 82 84 87 90 85 78 73 70 62 47 39 36 45 42 42 44 48 54 54 55 61 63 64 68 77 81 79 80 85 90 94
78 70 69 46 61 77 84 81 77 81 80 76 73 73 77 83 84 76 71 67 62 55 48 44 39 42 49 50 48 48 46 45 46 48 52 59 64 63 66 73 79 83 87 91
82 73 76 69 64 70 78 81 84 85 78 72 71 67 64 62 66 67 69 66 59 55 52 50 42 40 41 48 50 53 50 46 46 45 45 45 47 55 69 74 78 84 85 86
91 96 85 89 97 87 86 94 93 85 86 82 78 77 71 67 60 57 56 54 55 53 49 42 38 38 38 39 40 43 48 47 46 44 46 44 46 49 49 51 66 74 82 90
98 98 98 97 98 99 96 94 88 91 87 81 77 74 70 64 58 58 54 48 44 42 40 38 38 38 39 39 41 43 43 44 45 44 42 41 42 43 44 47 54 60 72 79
98 96 99 98 98 98 97 95 89 84 78 73 69 63 62 61 58 55 48 44 45 44 43 43 43 44 43 44 46 48 48 48 48 47 49 47 44 44 46 49 51 58 63 73
96 98 98 98 97 94 93 92 88 82 78 72 68 67 64 59 55 53 50 48 47 47 47 47 47 48 49 50 50 50 50 51 52 54 55 54 53 53 53 53 54 59 64 68
97 98 96 96 95 91 89 87 82 76 71 72 72 66 63 61 56 53 50 48 48 48 47 48 49 49 50 52 53 54 56 57 58 59 60 61 62 62 61 62 63 65 69 73
97 97 97 95 93 87 84 81 77 74 71 69 65 64 64 62 58 55 54 53 52 51 51 52 52 53 54 54 54 56 58 61 65 65 67 68 67 67 69 71 73 76 80 84
95 96 94 89 86 86 83 77 74 71 71 70 66 63 62 60 58 58 57 57 56 54 54 53 54 55 55 57 59 61 63 67 69 71 74 77 78 82 81 81 85 88 90 93
85 87 88 85 84 83 79 74 72 72 71 71 71 71 70 70 69 68 67 66 64 62 62 61 61 61 61 63 64 66 69 70 74 81 85 85 88 87 95 95 95 96 97 97
83 81 83 82 81 80 78 75 74 74 73 72 71 70 69 69 68 67 66 67 68 70 69 70 70 71 71 72 73 77 80 83 83 89 94 97 97 97 96 97 97 96 96 96
84 84 86 84 82 80 77 75 73 73 73 72 71 69 67 68 69 71 72 72 74 75 77 80 81 82 82 82 84 85 90 94 95 95 95 96 97 98 97 97 94 88 80 73
82 82 82 82 80 80 78 76 75 74 74 74 74 75 77 80 83 85 86 86 87 87 87 89 89 91 93 95 93 92 93 93 95 95 94 91 87 82 75 70 61 54 50 48
77 76 77 78 77 77 76 77 77 78 80 82 83 86 90 92 94 95 96 96 95 93 89 85 80 77 77 75 73 73 73 72 72 70 67 64 62 58 54 52 50 48 46 45
80 80 81 80 80 80 82 84 86 87 89 89 89 86 85 83 81 81 82 83 86 84 81 79 78 74 70 69 68 65 63 60 59 59 58 56 54 52 51 49 47 44 41 39
65 63 62 62 62 64 66 68 69 72 76 78 79 79 75 75 75 70 71 75 72 73 75 74 72 71 70 68 65 62 60 59 58 55 52 50 50 48 44 41 39 37 35 33
54 56 58 61 65 67 68 70 71 74 77 78 79 79 78 75 75 75 76 73 72 72 72 70 70 69 65 61 60 59 56 53 51 50 48 45 41 38 37 34 31 29 28 28
57 58 60 63 65 67 68 69 71 74 74 69 66 63 63 64 63 64 64 64 64 62 61 61 60 58 56 54 52 51 50 48 45 41 39 37 34 31 29 28 27 24 22 21
57 56 57 60 63 65 65 67 73 75 68 62 58 58 58 61 59 58 58 60 64 65 62 58 55 53 52 49 46 44 42 38 34 31 29 26 23 21 21 21 22 23 23 25
52 54 56 59 62 65 65 64 60 59 59 54 48 49 49 50 52 53 52 52 52 53 54 54 54 51 48 43 39 34 31 26 23 22 23 23 23 24 25 26 27 28 28 28

GFSNGP_prec_cthk_096.txt.gz
RH
59 54 57 57 61 75 85 90 92 81 85 77 81 86 83 83 94 97 95 91 86 83 81 80 80 80 81 84 85 86 84 81 78 73 69 62 47 43 42 41 44 49 53 55
58 47 49 46 45 47 63 71 72 83 83 80 78 89 88 92 98 97 93 89 85 86 86 89 85 92 89 87 85 84 85 85 84 79 76 73 74 62 60 59 57 57 56 56
51 42 42 35 33 48 62 74 81 88 79 80 82 90 92 95 99 96 98 92 88 86 88 88 91 94 94 87 87 82 83 85 84 82 80 82 81 76 73 74 75 75 78 79
56 45 47 24 33 41 60 76 84 87 85 91 93 93 97 97 99 99 97 97 96 96 92 87 87 88 87 85 84 80 79 82 83 83 83 83 83 83 83 81 82 82 82 84
56 54 40 32 42 49 62 70 81 92 96 98 97 96 98 99 99 99 99 98 96 96 92 86 82 79 74 76 78 78 75 75 78 79 80 82 84 85 83 82 82 83 82 86
62 66 61 31 50 43 39 65 76 88 90 93 97 98 98 98 99 98 97 97 96 93 90 86 78 73 69 67 63 59 57 57 59 64 66 66 70 71 74 78 80 82 86 88
68 69 64 51 47 41 49 66 79 89 94 96 98 99 99 98 97 97 97 92 89 88 86 84 79 76 71 65 59 57 55 52 49 49 50 52 54 56 58 61 64 68 72 76
75 81 74 68 56 51 53 58 74 90 93 97 97 96 97 98 98 93 93 89 83 76 76 74 73 71 70 70 68 59 54 52 51 48 44 44 46 47 48 49 49 50 52 55
83 77 79 83 78 74 63 61 67 85 92 99 93 98 98 97 88 85 85 82 74 71 66 63 61 62 61 61 61 58 54 52 50 46 45 43 41 42 43 43 43 43 44 46
95 97 91 90 87 82 81 72 72 73 87 94 92 97 92 87 87 88 84 78 77 74 68 64 58 56 55 56 56 55 52 51 51 48 43 39 37 35 35 34 35 35 35 35
97 95 96 96 95 92 90 87 82 76 81 94 97 97 97 96 91 86 82 79 73 71 67 60 58 55 52 51 52 52 52 52 51 46 44 43 42 40 39 39 39 39 40 40
92 98 98 94 97 98 95 98 97 94 94 91 93 94 94 87 83 78 75 74 70 67 64 59 57 56 54 51 48 47 47 47 48 49 47 47 47 46 45 43 41 42 43 45
95 98 97 98 98 98 96 98 97 92 89 91 91 88 86 86 84 78 73 69 65 63 60 55 51 51 50 48 47 46 46 46 48 49 50 50 49 47 48 48 47 47 49 51
95 98 98 97 97 97 97 93 90 88 86 86 83 79 78 77 75 74 73 72 69 65 65 63 59 56 54 53 52 50 50 51 53 54 54 53 52 52 54 55 54 54 54 55
97 96 97 97 94 92 88 85 83 81 81 78 79 78 78 76 73 72 71 69 67 66 65 64 61 58 57 57 57 57 58 60 60 60 60 59 59 58 58 58 58 58 59 59
92 92 92 89 85 82 80 79 80 78 77 76 74 73 73 73 72 72 70 69 69 67 68 67 66 66 65 65 64 64 64 64 64 64 63 64 63 63 64 64 64 64 64 65
85 84 83 84 81 79 77 76 77 78 78 77 76 75 74 74 75 75 73 73 73 72 72 71 70 70 70 69 69 68 68 67 66 67 68 69 70 71 71 71 70 70 71 72
86 85 82 81 81 81 79 78 78 79 79 79 79 79 78 78 76 76 75 75 75 75 75 75 75 74 73 72 71 71 72 72 72 73 73 73 73 74 76 76 76 79 79 79
84 83 82 81 81 80 79 80 82 82 82 82 82 82 83 83 83 83 82 82 81 79 78 77 78 78 77 77 76 78 81 81 81 81 81 82 82 82 82 82 79 73 66 61
81 79 78 77 77 75 74 74 74 73 73 72 73 74 75 77 78 79 80 80 79 77 76 76 76 75 73 73 76 80 82 82 85 87 87 84 82 79 73 67 63 61 58 56
74 72 70 66 63 61 61 62 62 62 62 62 63 63 63 65 66 67 66 66 67 67 70 70 67 67 67 65 63 62 61 61 61 62 62 60 59 61 63 62 61 59 57 55
70 62 54 50 49 50 52 53 55 56 57 58 59 61 61 61 59 59 60 63 62 62 60 61 61 61 60 61 61 61 62 63 62 62 62 61 60 59 58 60 59 57 54 51
44 46 47 49 51 52 54 55 55 55 56 56 56 56 55 53 53 54 56 60 62 62 62 61 61 61 60 60 60 61 61 61 60 58 56 54 54 55 56 56 54 51 49 49
46 47 48 48 50 52 53 53 54 53 52 51 50 49 47 47 48 49 51 52 51 50 50 51 53 55 56 57 56 54 52 52 52 52 51 51 51 51 50 50 48 45 42 40
47 48 49 49 49 50 52 53 54 54 55 53 50 45 42 41 42 43 46 48 47 45 45 47 49 51 51 51 51 51 50 49 49 51 51 51 50 48 45 43 41 40 39 37
50 51 50 46 45 47 48 50 51 50 47 43 40 37 35 36 37 38 39 41 42 43 44 45 46 47 47 46 45 45 46 47 47 48 47 46 44 42 41 40 38 35 33 29
48 43 38 37 37 37 38 38 39 40 38 36 35 34 33 33 33 34 36 37 38 38 39 39 40 39 37 36 36 36 36 35 34 33 31 30 28 27 27 27 27 26 26 26

GFSNGP_prec_cthk_102.txt.gz
RH
66 65 64 63 61 52 48 52 58 52 55 55 60 64 71 81 82 82 86 86 96 97 91 85 81 80 76 78 80 78 78 80 79 78 75 69 57 48 44 43 44 46 49 52
61 62 59 55 48 39 38 46 50 51 63 64 71 78 80 86 88 85 90 92 95 99 96 93 88 84 85 83 83 81 80 83 86 88 86 85 78 61 55 49 46 46 49 51
63 52 48 43 41 43 41 42 53 55 62 70 75 82 88 88 91 90 94 97 97 99 99 97 97 93 91 93 90 88 90 92 92 89 89 88 92 88 77 69 63 61 58 60
45 44 41 49 47 43 40 47 51 64 78 84 84 92 94 95 94 95 97 98 97 96 98 99 98 97 94 96 99 98 98 96 95 95 92 90 92 93 91 90 88 86 83 82
40 36 44 58 57 50 47 51 58 76 86 93 95 94 93 98 98 98 98 98 98 97 97 99 99 98 97 98 99 98 97 97 97 98 96 97 97 97 99 97 96 95 94 91
44 44 45 58 53 48 46 55 62 68 91 98 98 98 94 97 98 98 98 98 98 98 98 98 98 98 98 96 94 95 95 94 98 99 98 98 97 99 98 98 97 96 95 94
52 55 57 62 59 53 51 68 66 64 70 82 91 95 96 97 98 98 98 98 98 98 97 97 97 97 94 92 93 94 89 85 87 86 86 81 85 85 84 86 87 89 89 91
61 66 75 77 69 69 77 71 64 61 61 69 78 85 93 97 97 97 98 96 89 85 85 86 87 90 91 92 94 93 87 83 77 78 76 71 69 71 69 67 67 69 68 68
73 78 83 89 87 84 81 79 76 72 69 68 72 81 86 97 97 97 97 97 91 82 80 80 78 72 70 70 76 79 83 85 86 84 73 63 60 58 58 55 54 55 52 51
79 80 84 88 89 88 84 79 78 78 76 73 71 74 82 89 94 95 94 93 93 89 81 79 78 78 77 74 67 67 70 73 78 77 73 72 72 73 68 63 60 58 57 56
80 84 84 90 93 90 91 89 84 84 81 79 77 76 69 71 79 90 92 86 83 81 79 74 71 68 66 63 63 64 62 62 65 66 69 73 73 68 65 61 57 52 49 46
78 82 89 91 96 95 92 91 90 87 82 80 79 77 77 76 75 74 80 83 79 78 75 71 70 67 66 61 58 54 54 54 54 54 54 53 50 50 50 50 49 46 45 43
82 84 91 93 93 94 94 92 90 85 83 81 79 79 78 78 79 79 78 81 80 79 77 74 69 66 63 62 62 58 56 56 54 53 53 52 51 49 47 46 46 45 45 44
91 90 91 97 96 96 94 91 88 83 81 81 80 77 78 77 78 78 76 75 76 76 74 74 72 70 68 66 65 64 63 61 60 59 58 57 57 56 57 56 54 52 51 49
97 97 97 97 97 96 92 90 87 82 80 74 72 71 72 73 75 74 74 75 75 75 75 74 73 73 73 71 68 67 67 66 66 65 65 63 62 60 60 60 59 59 57 56
94 97 97 96 93 89 86 84 80 77 74 72 70 69 69 69 70 71 72 73 73 71 71 71 70 70 70 69 70 71 71 71 70 69 69 68 66 66 64 62 60 59 58 58
86 87 88 88 85 81 78 77 76 74 72 71 70 69 70 72 72 71 71 72 73 73 73 73 72 71 70 70 70 71 71 70 70 70 68 68 67 67 67 66 65 64 64 65
83 84 83 81 79 76 74 73 70 69 69 68 68 69 70 70 72 72 73 73 72 71 72 73 75 76 75 74 73 73 73 73 73 73 72 72 71 72 72 72 72 72 72 73
87 85 80 78 77 76 77 75 69 65 62 60 59 58 57 57 59 59 60 60 59 59 58 58 59 62 66 71 75 77 79 80 80 79 79 79 79 79 79 78 77 73 67 60
86 85 82 79 73 64 58 53 49 47 45 45 45 46 48 49 49 49 50 50 49 49 49 50 51 52 52 53 54 57 58 62 66 68 71 74 74 72 68 64 60 58 56 55
80 73 58 47 42 41 41 42 43 44 45 46 46 46 46 46 45 44 51 52 46 45 44 44 44 46 47 47 52 52 54 56 55 56 58 57 58 56 55 53 53 54 55 54
38 39 39 40 42 43 44 45 46 44 43 42 41 40 40 42 41 40 39 43 48 42 47 49 47 47 48 48 50 51 54 56 58 61 61 61 62 62 61 58 57 55 54 55
40 41 43 44 45 45 46 45 44 45 45 44 43 41 39 40 40 39 40 40 41 38 45 39 39 39 42 45 47 49 50 50 50 51 52 53 55 57 58 57 55 54 53 52
44 45 45 45 45 45 46 46 44 42 41 40 39 35 32 33 32 33 33 33 32 33 32 32 31 32 35 39 41 44 45 46 48 49 50 52 53 53 53 52 52 52 51 49
44 43 42 42 43 45 40 36 35 34 33 32 31 31 30 31 31 31 31 33 31 33 35 31 31 32 33 36 37 38 39 40 40 42 44 46 47 46 46 46 46 46 47 48
46 46 46 44 41 36 33 32 32 35 34 35 35 34 33 32 32 32 33 31 33 33 36 37 35 35 37 36 34 34 36 37 37 37 37 37 37 38 38 38 38 38 38 37
49 46 43 38 33 31 31 31 34 40 39 38 37 36 35 35 35 36 37 38 38 37 39 38 38 38 37 36 37 37 36 38 37 36 35 35 34 34 33 33 33 33 33 32

GFSNGP_prec_cthk_105.txt.gz
RH
80 74 68 70 69 63 67 59 58 68 59 70 71 71 72 73 71 75 77 74 76 80 87 90 83 80 79 79 80 81 80 78 78 84 85 85 78 57 57 57 48 46 48 50
69 69 70 67 59 53 50 51 57 57 82 70 68 71 74 77 80 79 81 81 85 87 86 97 92 88 86 85 84 83 79 82 84 86 87 87 79 66 64 63 55 51 50 53
72 62 60 61 62 62 60 73 67 74 79 69 70 71 76 81 84 85 87 88 87 98 92 98 99 96 91 91 90 90 88 91 88 87 89 89 85 80 74 69 65 62 57 56
63 56 61 69 66 62 69 64 58 62 67 80 84 81 82 83 88 90 92 91 91 98 97 97 99 99 96 95 96 95 94 94 95 93 94 94 94 92 89 85 84 75 70 63
47 51 57 69 67 61 62 75 58 62 75 89 92 87 90 88 93 94 93 94 96 96 97 98 97 99 98 98 98 98 99 98 98 98 98 98 96 97 97 96 92 88 85 81
51 42 70 87 63 57 50 73 65 58 73 85 92 95 96 95 94 96 96 95 96 98 97 97 97 97 98 98 99 96 95 98 99 99 98 99 99 99 98 98 99 98 97 96
53 55 67 67 60 52 70 88 75 67 64 78 90 94 95 96 96 98 98 96 93 92 92 92 95 97 97 97 98 97 98 98 98 99 96 98 98 98 98 99 98 98 99 99
62 61 80 73 62 69 77 72 69 66 63 64 69 75 80 84 91 97 96 97 93 88 85 85 85 87 90 93 94 97 97 97 98 98 96 96 94 95 96 96 96 93 94 95
71 77 82 85 85 84 81 80 78 76 73 69 66 69 75 77 82 94 95 94 94 91 82 81 85 86 83 85 87 83 88 95 98 96 94 89 86 89 85 82 78 77 75 75
73 78 77 83 88 89 88 83 81 82 81 76 74 70 69 70 74 76 82 86 88 84 84 77 77 76 76 78 80 79 80 83 85 85 88 92 92 93 87 82 79 74 69 64
77 76 79 79 85 90 89 87 84 81 80 78 76 74 74 68 62 64 67 72 78 80 79 75 71 70 70 69 70 68 67 67 67 71 75 76 83 87 83 78 76 73 69 64
78 74 75 84 86 91 95 92 89 85 80 77 75 75 73 71 69 65 64 68 70 72 72 71 70 67 63 66 67 68 65 61 60 58 59 61 60 60 62 64 67 71 73 68
76 74 76 80 90 92 93 93 90 87 83 80 76 75 73 72 73 72 72 72 68 68 71 73 74 73 73 70 65 64 66 65 62 60 58 56 56 56 54 52 51 50 50 50
82 83 84 85 90 94 93 91 87 84 82 79 77 73 72 70 69 70 70 71 70 71 71 72 72 72 71 71 71 72 69 67 67 65 63 62 62 61 59 57 56 54 53 52
88 93 94 95 96 95 92 89 87 84 82 79 76 74 71 69 66 66 66 66 67 68 68 69 70 70 71 71 72 73 73 75 75 74 72 71 70 68 66 65 63 62 62 62
82 89 93 93 92 92 91 87 84 83 81 79 74 72 70 68 66 64 63 63 62 63 63 63 64 64 65 66 68 70 72 72 73 75 75 75 74 72 72 71 70 70 69 68
72 77 83 87 87 85 83 81 78 75 73 71 69 67 65 62 60 58 58 59 59 59 62 63 64 65 66 68 71 72 73 73 73 74 74 73 73 73 72 72 73 73 72 71
77 81 82 81 80 78 77 75 72 68 62 56 52 51 50 50 51 50 50 51 53 54 51 52 54 57 60 64 66 69 71 74 76 78 79 79 79 79 78 78 76 76 76 74
83 82 80 78 74 71 68 61 55 52 50 48 46 45 44 43 43 43 43 42 43 48 43 42 44 48 47 50 57 63 67 69 71 72 74 75 77 79 80 81 82 81 79 75
82 82 80 77 69 59 52 45 41 40 40 41 41 41 40 40 39 39 44 45 42 40 40 40 40 50 47 50 51 55 54 54 55 57 61 65 68 69 68 65 67 65 63 63
78 72 53 39 36 37 38 40 41 42 42 41 39 37 35 34 33 33 41 48 43 37 43 47 42 40 46 46 53 55 55 57 58 59 58 57 56 55 55 55 54 54 55 57
38 37 37 38 39 40 42 42 41 39 38 38 38 37 37 39 37 37 36 32 37 32 37 39 33 33 36 44 51 53 54 55 56 57 58 58 59 59 58 58 58 58 58 58
40 40 41 42 43 43 41 40 38 37 37 36 34 32 34 32 31 33 37 31 30 28 32 33 27 29 32 42 43 44 46 47 49 50 51 53 54 54 54 54 54 54 54 54
44 45 44 44 42 42 41 40 39 36 33 31 28 27 27 33 37 35 33 29 28 27 28 25 25 26 31 37 38 38 40 42 43 46 49 48 50 50 50 51 52 53 51 53
42 43 44 43 45 45 40 36 33 33 33 36 33 33 32 33 33 34 31 31 30 31 32 32 30 30 35 36 36 37 38 39 37 41 43 43 43 44 44 45 42 48 50 48
43 49 49 45 44 41 40 38 37 37 37 37 39 40 39 36 35 35 36 35 35 36 36 36 36 36 37 38 39 40 40 39 39 39 37 39 39 39 39 38 36 39 40 40
45 46 46 46 43 41 39 36 34 38 38 39 41 43 41 40 41 39 40 42 42 41 41 41 40 40 40 40 40 40 40 40 40 41 40 41 41 41 40 38 39 37 34 33